DL9MFL-6 Weather Reports


time (UTC)temp
C
wind
direction
speed
KPH
gust
KPH
rain 1hr
cm
rain 24hr
cm
rain mn
cm
humidity
%
barometer
mb
20260505174000 15 257 3.2 8.0 0.03 0.15 0.03 80 1004.6
20260505173920 15 259 3.2 8.0 0.03 0.15 0.03 80 1004.6
20260505173916 15 259 3.2 8.0 0.03 0.15 0.03 80 1004.5
20260505173912 15 259 3.2 8.0 0.03 0.15 0.03 79 1004.5
20260505173600 15 259 3.2 8.0 0.03 0.15 0.03 79 1004.5
20260505173501 15 259 3.2 8.0 0.03 0.15 0.03 79 1004.5
20260505173400 15 254 3.2 8.0 0.03 0.15 0.03 78 1004.5
20260505173300 15 252 3.2 8.0 0.03 0.15 0.03 78 1004.5
20260505173200 15 250 3.2 8.0 0.03 0.15 0.03 77 1004.5
20260505173100 15 271 3.2 6.4 0.03 0.15 0.03 77 1004.4
20260505173001 15 273 1.6 6.4 0.03 0.15 0.03 76 1004.4
20260505172901 15 290 1.6 6.4 0.03 0.15 0.03 76 1004.3
20260505172800 15 302 1.6 6.4 0.03 0.15 0.03 76 1004.3
20260505172700 15 333 1.6 6.4 0.03 0.15 0.03 76 1004.2
20260505172600 15 29 1.6 6.4 0.03 0.15 0.03 77 1004.2
20260505172500 15 34 1.6 6.4 0.03 0.15 0.03 77 1004.2
20260505172400 15 35 1.6 6.4 0.03 0.15 0.03 77 1004.1
20260505172300 15 35 1.6 6.4 0.03 0.15 0.03 78 1004.1
20260505172201 15 35 1.6 6.4 0.03 0.15 0.03 78 1004.1
20260505172101 15 35 3.2 12.9 0.03 0.15 0.03 77 1004.1
20260505172001 15 35 3.2 12.9 0.03 0.15 0.03 77 1004.1
20260505171901 15 35 3.2 12.9 0.03 0.15 0.03 76 1004.0
20260505171800 15 35 3.2 12.9 0.03 0.15 0.03 77 1004.0
20260505171700 15 63 3.2 12.9 0.03 0.15 0.03 77 1004.0
20260505171600 15 55 4.8 12.9 0.03 0.15 0.03 78 1004.0
20260505171501 15 55 4.8 12.9 0.03 0.15 0.03 78 1004.0
20260505171401 15 37 4.8 16.1 0.03 0.15 0.03 77 1004.0
20260505171301 15 342 6.4 16.1 0.03 0.15 0.03 76 1004.0
20260505171202 15 15 6.4 16.1 0.03 0.15 0.03 76 1004.0
20260505171158 15 15 6.4 16.1 0.03 0.15 0.03 76 1004.0
20260505171058 15 43 6.4 16.1 0.03 0.15 0.03 75 1004.0
20260505170959 15 336 6.4 16.1 0.03 0.15 0.03 75 1004.1
20260505170859 15 15 6.4 16.1 0.03 0.15 0.03 76 1004.0
20260505170757 15 18 6.4 16.1 0.03 0.15 0.03 75 1004.0
20260505170700 15 21 6.4 16.1 0.03 0.15 0.03 76 1004.0
20260505170657 15 33 6.4 16.1 0.03 0.15 0.03 76 1004.0
20260505170556 15 40 6.4 16.1 0.03 0.15 0.03 76 1004.2
20260505170457 15 5 4.8 16.1 0.03 0.15 0.00 75 1004.3
20260505170356 15 342 4.8 12.9 0.00 0.15 0.00 76 1004.3
20260505170257 15 348 4.8 9.7 0.00 0.15 0.00 75 1004.4
20260505170200 15 343 4.8 9.7 0.00 0.15 0.00 74 1004.5
20260505170156 15 344 4.8 9.7 0.00 0.15 0.00 74 1004.5
20260505170055 15 333 3.2 9.7 0.00 0.15 0.00 73 1004.6
20260505165951 15 319 3.2 9.7 0.00 0.15 0.00 73 1004.6
20260505165850 15 323 3.2 8.0 0.00 0.15 0.00 72 1004.7
20260505165750 15 314 3.2 8.0 0.00 0.15 0.00 72 1004.9
20260505165701 15 313 3.2 8.0 0.00 0.15 0.00 72 1004.9
20260505165650 15 313 3.2 8.0 0.00 0.15 0.00 72 1004.9
20260505165551 15 303 4.8 8.0 0.00 0.15 0.00 72 1004.9
20260505165446 15 302 4.8 8.0 0.00 0.15 0.00 72 1004.9
20260505165345 15 302 4.8 8.0 0.00 0.15 0.00 72 1004.9
20260505165245 16 292 4.8 8.0 0.00 0.15 0.00 71 1004.9
20260505165201 16 293 4.8 9.7 0.00 0.15 0.00 71 1004.9
20260505165145 16 294 4.8 9.7 0.00 0.15 0.00 70 1005.0
20260505165043 16 299 4.8 9.7 0.00 0.15 0.00 71 1005.0
20260505164941 16 300 4.8 9.7 0.00 0.15 0.00 71 1005.0
20260505164839 16 304 4.8 9.7 0.00 0.15 0.00 71 1005.0
20260505164739 16 290 4.8 9.7 0.00 0.15 0.00 71 1005.0
20260505164701 16 290 4.8 9.7 0.00 0.15 0.00 71 1005.0
20260505164638 16 311 4.8 9.7 0.00 0.15 0.00 71 1005.0
20260505164537 16 292 4.8 9.7 0.00 0.15 0.00 71 1005.0
20260505164432 16 304 4.8 11.3 0.00 0.15 0.00 71 1005.0
20260505164332 16 298 4.8 11.3 0.00 0.15 0.00 70 1005.0
20260505164232 16 281 4.8 11.3 0.00 0.15 0.00 69 1005.0
20260505164201 16 302 4.8 11.3 0.00 0.15 0.00 68 1005.0
20260505164133 16 291 4.8 11.3 0.00 0.15 0.00 68 1005.1
20260505164035 16 295 4.8 11.3 0.00 0.15 0.00 68 1005.1
20260505163932 16 277 4.8 11.3 0.00 0.15 0.00 67 1005.1
20260505163832 16 299 4.8 11.3 0.00 0.15 0.00 67 1005.1
20260505163733 16 265 4.8 11.3 0.00 0.15 0.00 66 1005.0
20260505163700 16 290 4.8 11.3 0.00 0.15 0.00 66 1005.0
20260505163634 16 290 4.8 11.3 0.00 0.15 0.00 67 1005.0
20260505163530 16 288 4.8 11.3 0.00 0.15 0.00 66 1005.0
20260505163430 16 278 4.8 8.0 0.00 0.15 0.00 67 1005.0
20260505163330 16 297 4.8 9.7 0.00 0.15 0.00 67 1005.0
20260505163230 16 304 4.8 9.7 0.00 0.15 0.00 67 1005.0
20260505163201 16 294 4.8 9.7 0.00 0.15 0.00 67 1005.0
20260505163130 16 298 4.8 9.7 0.00 0.15 0.00 67 1005.0
20260505163030 16 295 4.8 9.7 0.00 0.15 0.00 66 1005.0
20260505162929 16 289 4.8 9.7 0.00 0.15 0.00 66 1004.9
20260505162829 16 292 4.8 9.7 0.00 0.15 0.00 66 1005.0
20260505162729 16 281 4.8 9.7 0.00 0.15 0.00 66 1004.9
20260505162655 16 292 4.8 9.7 0.00 0.15 0.00 65 1005.0
20260505162629 16 319 4.8 9.7 0.00 0.15 0.00 65 1005.0
20260505162529 16 303 4.8 9.7 0.00 0.15 0.00 66 1004.9
20260505162429 16 336 4.8 11.3 0.00 0.15 0.00 65 1004.9
20260505162329 16 304 4.8 12.9 0.00 0.15 0.00 66 1004.9
20260505162229 16 306 4.8 12.9 0.00 0.15 0.00 66 1004.9
20260505162150 16 298 4.8 12.9 0.00 0.15 0.00 66 1005.0
20260505162130 16 292 4.8 12.9 0.00 0.15 0.00 66 1005.0
20260505162028 16 294 4.8 12.9 0.00 0.15 0.00 65 1005.0
20260505161928 16 298 4.8 12.9 0.00 0.15 0.00 65 1005.0
20260505161826 16 288 4.8 12.9 0.00 0.15 0.00 66 1005.0
20260505161723 16 297 4.8 12.9 0.00 0.15 0.00 67 1005.0
20260505161644 16 287 4.8 12.9 0.00 0.15 0.00 67 1005.1
20260505161622 16 292 4.8 12.9 0.00 0.15 0.00 67 1005.1
20260505161522 16 296 6.4 12.9 0.00 0.15 0.00 67 1005.1
20260505161421 16 317 6.4 12.9 0.00 0.15 0.00 68 1005.1
20260505161320 16 300 6.4 11.3 0.00 0.15 0.00 68 1005.1
20260505161217 16 304 6.4 12.9 0.00 0.15 0.00 68 1005.1
20260505161138 16 295 6.4 12.9 0.00 0.15 0.00 67 1005.1
20260505161114 16 322 6.4 14.5 0.00 0.15 0.00 67 1005.1
20260505161014 16 291 6.4 14.5 0.00 0.15 0.00 67 1005.1
20260505160914 16 267 6.4 14.5 0.00 0.15 0.00 68 1005.1
20260505160854 16 308 6.4 14.5 0.00 0.15 0.00 68 1005.1
20260505160847 16 299 6.4 14.5 0.00 0.15 0.00 68 1005.1
20260505160843 16 273 6.4 14.5 0.00 0.15 0.00 68 1005.1
20260505160611 16 294 6.4 14.5 0.00 0.15 0.00 68 1005.1
20260505160510 16 268 6.4 14.5 0.00 0.15 0.00 68 1005.2
20260505160410 16 304 6.4 14.5 0.00 0.15 0.00 68 1005.1
20260505160307 16 296 6.4 14.5 0.00 0.15 0.00 68 1005.1
20260505160204 16 312 6.4 14.5 0.00 0.15 0.00 68 1005.1
20260505160130 16 288 6.4 14.5 0.00 0.15 0.00 68 1005.1
20260505153352 17 288 8.0 16.1 0.00 0.15 0.00 66 1004.9
20260505153250 17 291 8.0 16.1 0.00 0.15 0.00 66 1004.7
20260505153150 17 302 9.7 16.1 0.00 0.15 0.00 66 1004.9
20260505153130 17 285 9.7 16.1 0.00 0.15 0.00 66 1004.9
20260505153050 17 294 9.7 16.1 0.00 0.15 0.00 66 1004.9
20260505152944 17 312 9.7 17.7 0.00 0.15 0.00 65 1004.7
20260505152845 17 266 9.7 17.7 0.00 0.15 0.00 65 1004.9
20260505152744 17 321 9.7 17.7 0.00 0.15 0.00 65 1004.9
20260505152644 17 314 9.7 17.7 0.00 0.15 0.00 65 1004.7
20260505152630 17 319 9.7 17.7 0.00 0.15 0.00 65 1004.7
20260505152543 17 283 9.7 17.7 0.00 0.15 0.00 65 1004.7
20260505152438 17 309 9.7 17.7 0.00 0.15 0.00 64 1004.7
20260505152354 17 323 8.0 17.7 0.00 0.15 0.00 64 1005.0
20260505152350 17 294 9.7 17.7 0.00 0.15 0.00 64 1004.7
20260505152346 17 292 8.0 17.7 0.00 0.15 0.00 64 1004.9
20260505152342 17 296 8.0 17.7 0.00 0.15 0.00 64 1005.0
20260505152123 17 292 6.4 14.5 0.00 0.15 0.00 64 1004.9
20260505152111 17 301 8.0 16.1 0.00 0.15 0.00 64 1004.9
20260505151849 17 295 8.0 14.5 0.00 0.15 0.00 64 1004.9
20260505151845 17 344 6.4 14.5 0.00 0.15 0.00 65 1004.9
20260505151841 17 270 6.4 14.5 0.00 0.15 0.00 64 1004.9
20260505151535 17 290 6.4 14.5 0.00 0.15 0.00 65 1004.9
20260505151434 17 298 6.4 14.5 0.00 0.15 0.00 65 1004.9
20260505151334 17 296 6.4 14.5 0.00 0.15 0.00 65 1004.9
20260505151234 17 292 6.4 14.5 0.00 0.15 0.00 64 1004.9
20260505151134 17 314 6.4 14.5 0.00 0.15 0.00 64 1004.9
20260505151130 17 307 6.4 14.5 0.00 0.15 0.00 64 1004.9
20260505151034 17 319 6.4 14.5 0.00 0.15 0.00 64 1004.9
20260505150934 17 326 6.4 14.5 0.00 0.15 0.00 64 1004.9
20260505150832 16 321 6.4 14.5 0.00 0.15 0.00 65 1004.9
20260505150732 16 313 6.4 14.5 0.00 0.15 0.00 64 1004.9
20260505150635 16 312 6.4 14.5 0.00 0.15 0.00 64 1004.9
20260505150630 16 303 6.4 14.5 0.00 0.15 0.00 64 1004.9
20260505150530 16 296 6.4 14.5 0.00 0.15 0.00 65 1004.9
20260505150432 16 292 4.8 14.5 0.00 0.15 0.00 65 1004.9
20260505150330 16 320 4.8 12.9 0.00 0.15 0.00 65 1004.9
20260505150230 16 298 4.8 12.9 0.00 0.15 0.00 65 1004.9
20260505150129 16 326 4.8 9.7 0.00 0.15 0.00 65 1004.9
20260505140629 17 309 6.4 16.1 0.00 0.15 0.00 61 1004.9
20260505140549 17 303 8.0 16.1 0.00 0.15 0.00 61 1005.0
20260505140444 17 298 8.0 16.1 0.00 0.15 0.00 61 1004.9
20260505140343 17 290 8.0 16.1 0.00 0.15 0.00 61 1004.9
20260505140244 17 331 8.0 16.1 0.00 0.15 0.00 61 1004.9
20260505140144 17 286 8.0 16.1 0.00 0.15 0.00 61 1004.9
20260505140129 17 304 8.0 16.1 0.00 0.15 0.00 61 1004.9
20260505130302 18 288 9.7 19.3 0.00 0.15 0.00 67 1005.1
20260505130201 18 317 11.3 20.9 0.00 0.15 0.00 66 1005.1
20260505130114 18 318 11.3 20.9 0.00 0.15 0.00 65 1005.1
20260505125001 18 283 11.3 20.9 0.00 0.15 0.00 62 1005.1
20260505124901 18 309 11.3 20.9 0.00 0.15 0.00 62 1005.1
20260505124800 18 240 11.3 20.9 0.00 0.15 0.00 62 1005.1
20260505124700 18 310 11.3 19.3 0.00 0.15 0.00 63 1005.0
20260505124607 18 342 11.3 19.3 0.00 0.15 0.00 62 1005.1
20260505124600 18 289 11.3 19.3 0.00 0.15 0.00 62 1005.1
20260505124500 18 294 12.9 19.3 0.00 0.15 0.00 62 1005.0
20260505124401 18 279 12.9 19.3 0.00 0.15 0.00 61 1005.1
20260505124338 18 257 11.3 19.3 0.00 0.15 0.00 58 1005.1
20260505124322 18 270 11.3 19.3 0.00 0.15 0.00 60 1005.2
20260505124318 18 268 11.3 19.3 0.00 0.15 0.00 59 1005.1
20260505124100 18 264 11.3 19.3 0.00 0.15 0.00 58 1005.1
20260505124000 18 277 9.7 19.3 0.00 0.15 0.00 58 1005.1
20260505123900 18 278 9.7 19.3 0.00 0.15 0.00 57 1005.1
20260505123800 18 289 9.7 19.3 0.00 0.15 0.00 57 1005.1
20260505123700 18 280 9.7 19.3 0.00 0.15 0.00 57 1005.2
20260505123606 18 273 9.7 19.3 0.00 0.15 0.00 58 1005.1
20260505123600 18 269 9.7 19.3 0.00 0.15 0.00 58 1005.1
20260505123501 18 253 8.0 17.7 0.00 0.15 0.00 59 1005.1
20260505123402 18 319 8.0 17.7 0.00 0.15 0.00 59 1005.1
20260505123301 18 277 8.0 17.7 0.00 0.15 0.00 58 1005.1
20260505123201 18 254 9.7 17.7 0.00 0.15 0.00 60 1005.1
20260505123102 18 298 9.7 17.7 0.00 0.15 0.00 59 1005.1
20260505123001 18 263 9.7 17.7 0.00 0.15 0.00 59 1005.1
20260505122901 18 261 9.7 17.7 0.00 0.15 0.00 58 1005.2
20260505122801 18 266 9.7 17.7 0.00 0.15 0.00 58 1005.2
20260505122701 18 265 8.0 16.1 0.00 0.15 0.00 60 1005.3
20260505122605 18 242 8.0 16.1 0.00 0.15 0.00 59 1005.3
20260505122601 18 227 8.0 16.1 0.00 0.15 0.00 59 1005.3
20260505122501 18 238 8.0 16.1 0.00 0.15 0.00 59 1005.3
20260505122401 18 269 8.0 16.1 0.00 0.15 0.00 60 1005.3
20260505122300 19 220 8.0 16.1 0.00 0.15 0.00 59 1005.3
20260505122200 19 238 8.0 16.1 0.00 0.15 0.00 57 1005.4
20260505122101 19 240 6.4 16.1 0.00 0.15 0.00 56 1005.3
20260505122001 19 231 6.4 16.1 0.00 0.15 0.00 54 1005.4
20260505121901 19 279 6.4 16.1 0.00 0.15 0.00 53 1005.3
20260505121801 19 268 6.4 16.1 0.00 0.15 0.00 54 1005.4
20260505121701 19 263 6.4 16.1 0.00 0.15 0.00 56 1005.5
20260505121604 19 236 6.4 16.1 0.00 0.15 0.00 58 1005.5
20260505121556 19 229 6.4 16.1 0.00 0.15 0.00 58 1005.5
20260505121456 19 241 6.4 16.1 0.00 0.15 0.00 59 1005.4
20260505121355 19 288 6.4 16.1 0.00 0.15 0.00 59 1005.4
20260505121256 19 219 6.4 16.1 0.00 0.15 0.00 59 1005.4
20260505121156 19 257 6.4 16.1 0.00 0.15 0.00 58 1005.3
20260505121104 19 252 6.4 16.1 0.00 0.15 0.00 58 1005.3
20260505121055 19 261 6.4 16.1 0.00 0.15 0.00 58 1005.3
20260505120954 19 226 6.4 16.1 0.00 0.15 0.00 57 1005.3
20260505120943 19 269 6.4 12.9 0.00 0.15 0.00 56 1005.3
20260505120937 19 250 6.4 12.9 0.00 0.15 0.00 57 1005.3
20260505120933 19 257 6.4 16.1 0.00 0.15 0.00 57 1005.4
20260505120925 19 263 6.4 11.3 0.00 0.15 0.00 56 1005.3
20260505120920 19 268 6.4 12.9 0.00 0.15 0.00 56 1005.3
20260505120705 19 269 6.4 12.9 0.00 0.15 0.00 56 1005.4
20260505120353 19 256 6.4 12.9 0.00 0.15 0.00 56 1005.3
20260505120251 19 275 8.0 12.9 0.00 0.15 0.00 56 1005.3
20260505120151 19 303 8.0 14.5 0.00 0.15 0.00 55 1005.3
20260505120052 19 261 8.0 14.5 0.00 0.15 0.00 56 1005.3
20260505115952 19 309 8.0 14.5 0.00 0.15 0.00 56 1005.3
20260505115852 19 249 8.0 14.5 0.00 0.15 0.00 55 1005.3
20260505115752 20 260 8.0 14.5 0.00 0.15 0.00 55 1005.3
20260505115652 20 234 6.4 14.5 0.00 0.15 0.00 56 1005.3
20260505115601 20 243 6.4 14.5 0.00 0.15 0.00 56 1005.3
20260505115552 20 246 6.4 14.5 0.00 0.15 0.00 56 1005.2
20260505115451 20 266 6.4 14.5 0.00 0.15 0.00 55 1005.3
20260505115347 20 302 6.4 14.5 0.00 0.15 0.00 56 1005.3
20260505115245 20 259 6.4 14.5 0.00 0.15 0.00 58 1005.2
20260505115146 20 256 6.4 14.5 0.00 0.15 0.00 57 1005.3
20260505115101 20 269 6.4 14.5 0.00 0.15 0.00 56 1005.3
20260505115046 20 259 6.4 14.5 0.00 0.15 0.00 56 1005.2
20260505114946 20 271 6.4 14.5 0.00 0.15 0.00 57 1005.3
20260505114842 20 295 8.0 14.5 0.00 0.15 0.00 57 1005.3
20260505114742 20 272 8.0 14.5 0.00 0.15 0.00 56 1005.2
20260505114642 20 236 8.0 14.5 0.00 0.15 0.00 57 1005.2
20260505114601 20 230 8.0 14.5 0.00 0.15 0.00 56 1005.2
20260505114539 20 277 8.0 14.5 0.00 0.15 0.00 56 1005.3
20260505114437 20 250 8.0 14.5 0.00 0.15 0.00 55 1005.2
20260505114333 20 267 8.0 12.9 0.00 0.15 0.00 55 1005.2
20260505114232 20 243 8.0 12.9 0.00 0.15 0.00 56 1005.2
20260505114132 20 276 8.0 14.5 0.00 0.15 0.00 56 1005.2
20260505114101 20 272 8.0 14.5 0.00 0.15 0.00 56 1005.2
20260505114031 20 229 8.0 14.5 0.00 0.15 0.00 56 1005.2
20260505113931 20 247 8.0 14.5 0.00 0.15 0.00 56 1005.2
20260505113830 20 262 8.0 14.5 0.00 0.15 0.00 56 1005.2
20260505113729 20 270 8.0 14.5 0.00 0.15 0.00 54 1005.1
20260505113629 20 301 8.0 14.5 0.00 0.15 0.00 55 1005.2
20260505113601 20 306 8.0 14.5 0.00 0.15 0.00 55 1005.2
20260505113530 20 267 8.0 14.5 0.00 0.15 0.00 54 1005.2
20260505113430 20 305 8.0 14.5 0.00 0.15 0.00 54 1005.1
20260505113329 20 319 8.0 14.5 0.00 0.15 0.00 53 1005.1
20260505113229 20 262 6.4 14.5 0.00 0.15 0.00 53 1005.1
20260505113129 20 246 6.4 14.5 0.00 0.15 0.00 53 1005.1
20260505113101 20 290 6.4 14.5 0.00 0.15 0.00 53 1005.1
20260505113029 20 263 6.4 14.5 0.00 0.15 0.00 54 1005.1
20260505112929 20 293 6.4 14.5 0.00 0.15 0.00 54 1005.0
20260505112829 20 271 6.4 12.9 0.00 0.15 0.00 54 1005.1
20260505112729 20 261 6.4 12.9 0.00 0.15 0.00 55 1005.1
20260505112628 20 283 4.8 12.9 0.00 0.15 0.00 55 1005.1
20260505112601 20 266 4.8 12.9 0.00 0.15 0.00 56 1005.1
20260505112527 20 279 4.8 11.3 0.00 0.15 0.00 55 1005.1
20260505112427 20 298 4.8 11.3 0.00 0.15 0.00 55 1005.1
20260505112327 20 333 4.8 11.3 0.00 0.15 0.00 54 1005.1
20260505112227 20 298 4.8 11.3 0.00 0.15 0.00 55 1005.1
20260505112122 20 292 4.8 14.5 0.00 0.15 0.00 55 1005.1
20260505112102 20 304 4.8 14.5 0.00 0.15 0.00 55 1005.1
20260505112022 20 292 4.8 14.5 0.00 0.15 0.00 54 1005.1
20260505111922 20 319 4.8 14.5 0.00 0.15 0.00 54 1005.1
20260505111822 20 319 4.8 14.5 0.00 0.15 0.00 55 1005.1
20260505111720 20 305 4.8 14.5 0.00 0.15 0.00 55 1005.1
20260505111613 20 309 6.4 14.5 0.00 0.15 0.00 55 1005.1
20260505111601 20 309 6.4 14.5 0.00 0.15 0.00 54 1005.1
20260505111513 20 314 6.4 14.5 0.00 0.15 0.00 55 1005.1
20260505111414 20 333 6.4 14.5 0.00 0.15 0.00 55 1005.1
20260505111314 20 342 6.4 14.5 0.00 0.15 0.00 56 1005.1
20260505111213 20 348 6.4 14.5 0.00 0.15 0.00 56 1005.1
20260505111113 20 305 6.4 12.9 0.00 0.15 0.00 57 1005.1
20260505111101 20 308 6.4 12.9 0.00 0.15 0.00 57 1005.1
20260505111014 20 303 6.4 12.9 0.00 0.15 0.00 57 1005.1
20260505110914 20 263 6.4 12.9 0.00 0.15 0.00 57 1005.1
20260505110814 20 264 6.4 12.9 0.00 0.15 0.00 58 1005.1
20260505110714 20 272 6.4 12.9 0.00 0.15 0.00 57 1005.1
20260505110613 20 265 6.4 12.9 0.00 0.15 0.00 57 1005.1
20260505110601 20 278 6.4 12.9 0.00 0.15 0.00 57 1005.1
20260505110513 20 264 6.4 12.9 0.00 0.15 0.00 57 1005.0
20260505110410 20 263 6.4 12.9 0.00 0.15 0.00 60 1005.0
20260505110310 20 260 6.4 12.9 0.00 0.15 0.00 60 1005.1
20260505110210 20 304 6.4 12.9 0.00 0.15 0.00 60 1005.1
20260505110110 20 312 6.4 12.9 0.00 0.15 0.00 60 1005.1
20260505102201 18 148 1.6 4.8 0.00 0.15 0.00 61 1005.3
20260505102101 18 148 1.6 4.8 0.00 0.15 0.00 62 1005.3
20260505102001 18 148 1.6 4.8 0.00 0.15 0.00 58 1005.3
20260505101901 18 148 1.6 8.0 0.00 0.15 0.00 57 1005.2
20260505101825 18 148 1.6 8.0 0.00 0.15 0.00 58 1005.3
20260505101816 18 148 1.6 8.0 0.00 0.15 0.00 56 1005.2
20260505101812 18 148 1.6 8.0 0.00 0.15 0.00 59 1005.2
20260505101500 18 148 1.6 8.0 0.00 0.15 0.00 56 1005.3
20260505101400 18 148 1.6 8.0 0.00 0.15 0.00 56 1005.3
20260505101300 18 148 3.2 8.0 0.00 0.15 0.00 57 1005.3
20260505101200 18 139 3.2 8.0 0.00 0.15 0.00 56 1005.2
20260505101101 18 142 3.2 8.0 0.00 0.15 0.00 57 1005.2
20260505101001 18 143 3.2 8.0 0.00 0.15 0.00 57 1005.2
20260505100902 18 144 3.2 6.4 0.00 0.15 0.00 57 1005.2
20260505100801 18 144 3.2 6.4 0.00 0.15 0.00 57 1005.2
20260505100659 18 144 3.2 6.4 0.00 0.15 0.00 57 1005.2
20260505100603 18 146 3.2 6.4 0.00 0.15 0.00 56 1005.3
20260505100559 18 146 3.2 6.4 0.00 0.15 0.00 56 1005.3
20260505100500 18 147 3.2 6.4 0.00 0.15 0.00 56 1005.3
20260505100400 18 148 3.2 6.4 0.00 0.15 0.00 58 1005.3
20260505100300 18 192 3.2 6.4 0.00 0.15 0.00 61 1005.3
20260505100200 18 192 3.2 6.4 0.00 0.15 0.00 59 1005.4
20260505100059 18 198 4.8 9.7 0.00 0.15 0.00 59 1005.4
20260505095959 18 198 4.8 9.7 0.00 0.15 0.00 58 1005.4
20260505095900 18 200 4.8 9.7 0.00 0.15 0.00 58 1005.4
20260505095800 18 172 4.8 9.7 0.00 0.15 0.00 61 1005.4
20260505095700 18 196 4.8 9.7 0.00 0.15 0.00 60 1005.5
20260505095604 18 147 4.8 9.7 0.00 0.15 0.00 62 1005.5
20260505095600 18 147 4.8 9.7 0.00 0.15 0.00 62 1005.5
20260505095459 18 182 4.8 9.7 0.00 0.15 0.00 61 1005.5
20260505095359 18 182 4.8 9.7 0.00 0.15 0.00 62 1005.5
20260505095259 18 209 4.8 9.7 0.00 0.15 0.00 63 1005.4
20260505095203 18 200 4.8 9.7 0.00 0.15 0.00 63 1005.5
20260505095104 18 194 3.2 9.7 0.00 0.15 0.00 62 1005.5
20260505095100 18 194 3.2 9.7 0.00 0.15 0.00 62 1005.5
20260505095000 18 198 3.2 9.7 0.00 0.15 0.00 61 1005.5
20260505094900 18 194 3.2 9.7 0.00 0.15 0.00 63 1005.5
20260505094755 18 192 3.2 9.7 0.00 0.15 0.00 63 1005.5
20260505094656 18 122 3.2 9.7 0.00 0.15 0.00 64 1005.5
20260505094601 18 122 3.2 9.7 0.00 0.15 0.00 63 1005.5
20260505094555 18 122 3.2 9.7 0.00 0.15 0.00 63 1005.5
20260505094455 18 121 3.2 9.7 0.00 0.15 0.00 65 1005.5
20260505094355 18 118 3.2 9.7 0.00 0.15 0.00 61 1005.5
20260505094255 18 139 1.6 9.7 0.00 0.15 0.00 62 1005.5
20260505094200 18 120 1.6 6.4 0.00 0.15 0.00 63 1005.5
20260505094103 18 192 1.6 6.4 0.00 0.15 0.00 62 1005.5
20260505094056 18 192 1.6 6.4 0.00 0.15 0.00 62 1005.5
20260505093956 18 192 1.6 6.4 0.00 0.15 0.00 61 1005.5
20260505093856 18 142 1.6 6.4 0.00 0.15 0.00 64 1005.5
20260505093755 18 142 1.6 6.4 0.00 0.15 0.00 66 1005.5
20260505093658 18 141 1.6 6.4 0.00 0.15 0.00 65 1005.5
20260505093601 17 144 1.6 6.4 0.00 0.15 0.00 65 1005.5
20260505093553 17 144 1.6 6.4 0.00 0.15 0.00 65 1005.5
20260505093452 17 176 1.6 9.7 0.00 0.15 0.00 66 1005.5
20260505093352 17 196 3.2 9.7 0.00 0.15 0.00 67 1005.5
20260505093252 17 196 3.2 9.7 0.00 0.15 0.00 64 1005.5
20260505093153 17 196 3.2 9.7 0.00 0.15 0.00 65 1005.5
20260505093102 17 196 3.2 9.7 0.00 0.15 0.00 65 1005.5
20260505093047 17 173 1.6 9.7 0.00 0.15 0.00 65 1005.5
20260505092947 17 173 3.2 9.7 0.00 0.15 0.00 67 1005.5
20260505092845 17 173 3.2 9.7 0.00 0.15 0.00 68 1005.5
20260505092744 17 173 3.2 9.7 0.00 0.15 0.00 67 1005.6
20260505092644 17 173 3.2 9.7 0.00 0.15 0.00 65 1005.6
20260505092601 17 173 3.2 9.7 0.00 0.15 0.00 65 1005.6
20260505092541 17 173 3.2 9.7 0.00 0.15 0.00 65 1005.6
20260505092437 17 127 3.2 8.0 0.00 0.15 0.00 66 1005.6
20260505092337 17 121 1.6 8.0 0.00 0.15 0.00 66 1005.7
20260505092237 17 135 1.6 4.8 0.00 0.15 0.00 67 1005.7
20260505092138 17 118 1.6 4.8 0.00 0.15 0.00 69 1005.7
20260505092101 17 151 1.6 4.8 0.00 0.15 0.00 69 1005.7
20260505092038 17 151 1.6 4.8 0.00 0.15 0.00 68 1005.7
20260505091938 17 151 1.6 4.8 0.00 0.15 0.00 68 1005.8
20260505091837 17 151 1.6 4.8 0.00 0.15 0.00 68 1005.8
20260505091735 17 151 1.6 4.8 0.00 0.15 0.00 66 1005.8
20260505091635 17 151 1.6 4.8 0.00 0.15 0.00 69 1005.8
20260505091600 17 151 1.6 4.8 0.00 0.15 0.00 69 1005.8
20260505091535 17 151 1.6 4.8 0.00 0.15 0.00 68 1005.8
20260505091436 17 151 1.6 4.8 0.00 0.15 0.00 67 1005.8
20260505091333 17 168 1.6 3.2 0.00 0.15 0.00 69 1005.8
20260505091233 17 168 1.6 3.2 0.00 0.15 0.00 69 1005.9
20260505091134 17 169 1.6 3.2 0.00 0.15 0.00 68 1005.8
20260505091100 17 169 1.6 3.2 0.00 0.15 0.00 68 1005.8
20260505091029 17 169 1.6 3.2 0.00 0.15 0.00 68 1005.8
20260505090929 17 169 1.6 3.2 0.00 0.15 0.00 69 1005.8
20260505090829 17 169 1.6 3.2 0.00 0.15 0.00 69 1005.8
20260505090729 17 169 1.6 3.2 0.00 0.15 0.00 68 1005.8
20260505090629 17 169 1.6 3.2 0.00 0.15 0.00 68 1005.9
20260505090601 17 169 1.6 3.2 0.00 0.15 0.00 69 1005.9
20260505090529 17 169 1.6 3.2 0.00 0.15 0.00 70 1005.9
20260505090430 17 169 1.6 6.4 0.00 0.15 0.00 69 1005.9
20260505090335 17 169 1.6 6.4 0.00 0.15 0.00 70 1005.9
20260505090229 16 169 1.6 6.4 0.00 0.15 0.00 70 1005.9
20260505090128 17 169 1.6 6.4 0.00 0.15 0.00 69 1006.0
20260505090101 16 169 1.6 6.4 0.00 0.15 0.00 69 1006.0
20260505090029 16 169 1.6 6.4 0.00 0.15 0.00 69 1006.0
20260505085930 16 169 1.6 6.4 0.00 0.15 0.00 70 1005.9
20260505085829 17 169 1.6 6.4 0.00 0.15 0.00 70 1006.0
20260505085729 16 169 1.6 6.4 0.00 0.15 0.00 69 1006.0
20260505085629 16 169 1.6 6.4 0.00 0.15 0.00 72 1006.0
20260505085601 16 169 1.6 6.4 0.00 0.15 0.00 71 1006.0
20260505085529 16 169 1.6 6.4 0.00 0.15 0.00 71 1006.0
20260505085429 16 128 1.6 4.8 0.00 0.15 0.00 71 1006.0
20260505085328 16 104 1.6 6.4 0.00 0.15 0.00 73 1006.0
20260505085228 16 101 1.6 6.4 0.00 0.15 0.00 73 1006.0
20260505085128 16 101 1.6 6.4 0.00 0.15 0.00 73 1006.0
20260505085101 16 101 1.6 6.4 0.00 0.15 0.00 74 1006.0
20260505085029 16 101 1.6 6.4 0.00 0.15 0.00 74 1006.0
20260505084929 16 96 1.6 6.4 0.00 0.15 0.00 74 1006.0
20260505084829 16 95 1.6 6.4 0.00 0.15 0.00 72 1006.0
20260505084729 16 86 1.6 6.4 0.00 0.15 0.00 74 1006.0
20260505084628 16 86 1.6 6.4 0.00 0.15 0.00 74 1006.0
20260505084601 16 85 1.6 6.4 0.00 0.15 0.00 74 1006.0
20260505084528 16 73 1.6 6.4 0.00 0.15 0.00 74 1006.0
20260505084428 16 72 1.6 6.4 0.00 0.15 0.00 75 1006.0
20260505084329 16 126 1.6 6.4 0.00 0.15 0.00 75 1006.1
20260505084229 16 126 1.6 6.4 0.00 0.15 0.00 74 1006.1
20260505084134 16 126 1.6 6.4 0.00 0.15 0.00 76 1006.1
20260505084101 16 126 1.6 6.4 0.00 0.15 0.00 76 1006.1
20260505084027 16 126 1.6 9.7 0.00 0.15 0.00 76 1006.2
20260505083927 16 126 3.2 9.7 0.00 0.15 0.00 74 1006.2
20260505083825 16 126 3.2 9.7 0.00 0.15 0.00 73 1006.2
20260505083723 16 126 3.2 9.7 0.00 0.15 0.00 74 1006.2
20260505083623 16 128 1.6 9.7 0.00 0.15 0.00 74 1006.2
20260505083601 16 127 1.6 9.7 0.00 0.15 0.00 74 1006.2
20260505083521 16 126 1.6 9.7 0.00 0.15 0.00 76 1006.2
20260505083419 16 126 1.6 9.7 0.00 0.15 0.00 76 1006.2
20260505083331 16 126 3.2 9.7 0.00 0.15 0.00 76 1006.2
20260505083325 16 126 1.6 9.7 0.00 0.15 0.00 75 1006.3
20260505083321 16 126 3.2 9.7 0.00 0.15 0.00 75 1006.3
20260505083313 16 127 3.2 9.7 0.00 0.15 0.00 76 1006.2
20260505083011 16 126 1.6 8.0 0.00 0.15 0.00 77 1006.2
20260505082911 15 103 1.6 6.4 0.00 0.15 0.00 77 1006.2
20260505082826 15 102 1.6 6.4 0.00 0.15 0.00 76 1006.2
20260505082822 15 93 1.6 6.4 0.00 0.15 0.00 78 1006.2
20260505082813 15 114 3.2 6.4 0.00 0.15 0.00 77 1006.2
20260505082507 15 114 3.2 6.4 0.00 0.15 0.00 78 1006.2
20260505082407 15 115 3.2 6.4 0.00 0.15 0.00 77 1006.2
20260505082307 15 115 3.2 6.4 0.00 0.15 0.00 77 1006.2
20260505082207 15 122 3.2 6.4 0.00 0.15 0.00 77 1006.3
20260505082108 15 123 3.2 6.4 0.00 0.15 0.00 77 1006.2
20260505082100 15 123 3.2 6.4 0.00 0.15 0.00 78 1006.2
20260505082007 15 122 3.2 6.4 0.00 0.15 0.00 78 1006.2
20260505081907 15 122 3.2 6.4 0.00 0.15 0.00 78 1006.2
20260505081805 15 121 3.2 6.4 0.00 0.15 0.00 78 1006.2
20260505081705 15 81 1.6 4.8 0.00 0.15 0.00 78 1006.2
20260505081605 15 46 1.6 4.8 0.00 0.15 0.00 79 1006.2
20260505081601 15 37 1.6 4.8 0.00 0.15 0.00 78 1006.2
20260505081505 15 336 1.6 4.8 0.00 0.15 0.00 79 1006.2
20260505081406 15 337 1.6 4.8 0.00 0.15 0.00 79 1006.3
20260505081325 14 337 1.6 4.8 0.00 0.15 0.00 79 1006.2
20260505081321 14 337 1.6 4.8 0.00 0.15 0.00 79 1006.3
20260505081312 14 338 1.6 4.8 0.00 0.15 0.00 80 1006.3
20260505081002 14 338 1.6 4.8 0.00 0.15 0.00 80 1006.3
20260505080901 14 338 1.6 4.8 0.00 0.15 0.00 80 1006.3
20260505080826 14 340 1.6 4.8 0.00 0.15 0.00 79 1006.3
20260505080822 14 340 1.6 4.8 0.00 0.15 0.00 79 1006.3
20260505080813 14 340 1.6 4.8 0.00 0.15 0.00 80 1006.3
20260505080501 14 337 1.6 4.8 0.00 0.15 0.00 80 1006.3
20260505080401 14 337 1.6 4.8 0.00 0.15 0.00 80 1006.4
20260505080301 14 337 1.6 4.8 0.00 0.15 0.00 80 1006.3
20260505080201 14 336 1.6 4.8 0.00 0.15 0.00 80 1006.4
20260505080001 14 336 1.6 4.8 0.00 0.15 0.00 81 1006.4
20260505075901 13 336 1.6 4.8 0.00 0.15 0.00 80 1006.4
20260505075824 13 336 1.6 4.8 0.00 0.15 0.00 81 1006.4
20260505075820 13 340 1.6 3.2 0.00 0.15 0.00 81 1006.4
20260505075811 13 340 1.6 3.2 0.00 0.15 0.00 81 1006.4
20260505075500 13 340 0.0 3.2 0.00 0.15 0.00 80 1006.4
20260505075400 13 340 0.0 3.2 0.00 0.15 0.00 79 1006.4
20260505075325 13 340 0.0 3.2 0.00 0.15 0.00 80 1006.4
20260505075320 13 340 1.6 4.8 0.00 0.15 0.00 81 1006.4
20260505075312 13 340 1.6 4.8 0.00 0.15 0.00 82 1006.3
20260505075000 13 339 0.0 4.8 0.00 0.15 0.00 84 1006.3
20260505074900 13 339 1.6 4.8 0.00 0.15 0.00 83 1006.3
20260505074800 13 339 1.6 4.8 0.00 0.15 0.00 83 1006.3
20260505074700 13 339 1.6 4.8 0.00 0.15 0.00 83 1006.3
20260505074601 13 339 1.6 4.8 0.00 0.15 0.00 83 1006.3
20260505074501 13 338 1.6 4.8 0.00 0.15 0.00 83 1006.3
20260505074401 13 338 1.6 4.8 0.00 0.15 0.00 83 1006.4
20260505074301 13 338 1.6 4.8 0.00 0.15 0.00 84 1006.4
20260505074201 13 338 1.6 4.8 0.00 0.15 0.00 84 1006.4
20260505074101 13 338 1.6 4.8 0.00 0.15 0.00 84 1006.4
20260505074001 13 338 1.6 4.8 0.00 0.15 0.00 84 1006.5
20260505073901 13 338 1.6 4.8 0.00 0.15 0.00 84 1006.5
20260505073825 13 338 1.6 4.8 0.00 0.15 0.00 84 1006.4
20260505073821 13 338 1.6 4.8 0.00 0.15 0.00 84 1006.4
20260505073813 13 338 1.6 6.4 0.00 0.15 0.00 84 1006.4
20260505073501 13 338 3.2 6.4 0.00 0.15 0.00 84 1006.5
20260505073401 13 338 1.6 6.4 0.00 0.15 0.00 85 1006.4
20260505073301 13 338 1.6 6.4 0.00 0.15 0.00 86 1006.5
20260505073201 13 338 1.6 6.4 0.00 0.15 0.00 85 1006.5
20260505073106 13 338 1.6 6.4 0.00 0.15 0.00 85 1006.5
20260505073000 13 338 1.6 6.4 0.00 0.15 0.00 85 1006.5
20260505072900 12 338 3.2 6.4 0.00 0.15 0.00 86 1006.5
20260505072801 12 338 3.2 6.4 0.00 0.15 0.00 86 1006.5
20260505072701 12 338 3.2 6.4 0.00 0.15 0.00 86 1006.7
20260505072604 12 338 3.2 6.4 0.00 0.15 0.00 86 1006.7
20260505072501 12 55 1.6 4.8 0.00 0.15 0.00 86 1006.7
20260505072401 12 202 1.6 4.8 0.00 0.15 0.00 86 1006.7
20260505072320 12 203 1.6 4.8 0.00 0.15 0.00 86 1006.7
20260505072316 12 204 3.2 4.8 0.00 0.15 0.00 86 1006.8
20260505072312 12 204 3.2 4.8 0.00 0.15 0.00 86 1006.8
20260505072000 12 204 3.2 4.8 0.00 0.15 0.00 86 1006.8
20260505071900 12 204 3.2 4.8 0.00 0.15 0.00 86 1006.8
20260505071800 12 204 1.6 4.8 0.00 0.15 0.00 86 1006.9
20260505071701 12 198 1.6 4.8 0.00 0.15 0.00 86 1006.9
20260505071601 12 198 1.6 4.8 0.00 0.15 0.00 87 1006.9
20260505071500 12 198 1.6 4.8 0.00 0.15 0.00 87 1006.9
20260505071400 12 198 1.6 4.8 0.00 0.15 0.00 87 1006.9
20260505071320 12 198 1.6 4.8 0.00 0.15 0.00 88 1007.0
20260505071316 12 198 1.6 4.8 0.00 0.15 0.00 89 1007.0
20260505071312 12 198 1.6 4.8 0.00 0.15 0.00 90 1007.0
20260505071001 11 198 1.6 4.8 0.00 0.15 0.00 90 1007.0
20260505070901 11 198 1.6 4.8 0.00 0.15 0.00 90 1007.0
20260505070801 11 198 1.6 4.8 0.00 0.15 0.00 90 1007.1
20260505070701 11 198 1.6 4.8 0.00 0.15 0.00 90 1007.1
20260505070601 11 198 1.6 4.8 0.00 0.15 0.00 90 1007.1
20260505070501 11 198 1.6 4.8 0.00 0.15 0.00 90 1007.1
20260505070401 11 199 1.6 4.8 0.00 0.15 0.00 90 1007.1
20260505070301 11 198 1.6 8.0 0.00 0.15 0.00 90 1007.1
20260505070201 11 199 1.6 8.0 0.00 0.15 0.00 90 1007.1
20260505070001 11 200 1.6 8.0 0.00 0.15 0.00 90 1007.1
20260505065901 11 200 1.6 8.0 0.00 0.15 0.00 90 1007.1
20260505065801 11 200 3.2 8.0 0.00 0.15 0.00 90 1007.1
20260505065701 11 201 3.2 8.0 0.00 0.15 0.00 90 1007.1
20260505065601 11 201 3.2 8.0 0.00 0.15 0.00 90 1007.1
20260505065500 11 201 3.2 8.0 0.00 0.15 0.00 90 1007.1
20260505065401 11 204 3.2 8.0 0.00 0.15 0.00 90 1007.1
20260505065303 11 134 3.2 6.4 0.00 0.15 0.00 90 1007.2
20260505065201 11 134 3.2 6.4 0.00 0.15 0.00 91 1007.2
20260505065101 11 134 1.6 6.4 0.00 0.15 0.00 91 1007.2
20260505065001 11 126 1.6 6.4 0.00 0.15 0.00 91 1007.2
20260505064901 11 126 1.6 6.4 0.00 0.15 0.00 91 1007.2
20260505064821 11 125 1.6 6.4 0.00 0.15 0.00 91 1007.2
20260505064817 11 125 1.6 6.4 0.00 0.15 0.00 91 1007.2
20260505064813 10 125 1.6 6.4 0.00 0.15 0.00 91 1007.2
20260505064501 10 124 0.0 6.4 0.00 0.15 0.00 91 1007.2
20260505064401 10 124 0.0 6.4 0.00 0.15 0.00 91 1007.2
20260505064320 10 123 0.0 6.4 0.00 0.15 0.00 91 1007.2
20260505064316 10 123 0.0 1.6 0.00 0.15 0.00 91 1007.2
20260505064312 10 123 0.0 1.6 0.00 0.15 0.00 91 1007.2
20260505064001 10 123 0.0 1.6 0.00 0.15 0.00 91 1007.2
20260505063901 10 123 0.0 1.6 0.00 0.15 0.00 91 1007.2
20260505063801 10 123 0.0 1.6 0.00 0.15 0.00 92 1007.2
20260505063701 10 123 0.0 1.6 0.00 0.15 0.00 92 1007.2
20260505063600 10 123 0.0 1.6 0.00 0.15 0.00 92 1007.2
20260505063458 10 123 0.0 1.6 0.00 0.15 0.00 92 1007.3
20260505063359 10 123 0.0 1.6 0.00 0.15 0.00 92 1007.3
20260505063257 10 123 0.0 1.6 0.00 0.15 0.00 92 1007.3
20260505063157 10 123 0.0 1.6 0.00 0.15 0.00 92 1007.3
20260505063101 10 123 0.0 1.6 0.00 0.15 0.00 92 1007.3
20260505063055 10 123 0.0 1.6 0.00 0.15 0.00 92 1007.3
20260505062952 10 123 0.0 1.6 0.00 0.15 0.00 92 1007.3
20260505062847 10 123 0.0 1.6 0.00 0.15 0.00 92 1007.3
20260505062747 10 123 0.0 3.2 0.00 0.15 0.00 92 1007.3
20260505062647 10 123 0.0 3.2 0.00 0.15 0.00 92 1007.3
20260505062601 10 123 0.0 3.2 0.00 0.15 0.00 92 1007.3
20260505062547 10 123 0.0 3.2 0.00 0.15 0.00 92 1007.3
20260505062447 10 123 0.0 3.2 0.00 0.15 0.00 92 1007.3
20260505062346 10 123 0.0 3.2 0.00 0.15 0.00 92 1007.3
20260505062245 10 123 0.0 3.2 0.00 0.15 0.00 92 1007.4
20260505062145 10 123 0.0 3.2 0.00 0.15 0.00 92 1007.4
20260505062100 10 123 0.0 3.2 0.00 0.15 0.00 92 1007.4
20260505062043 10 123 1.6 3.2 0.00 0.15 0.00 92 1007.4
20260505061940 10 123 1.6 3.2 0.00 0.15 0.00 92 1007.3
20260505061835 10 123 0.0 3.2 0.00 0.15 0.00 92 1007.3
20260505061815 10 123 0.0 3.2 0.00 0.15 0.00 92 1007.3
20260505061811 10 123 0.0 3.2 0.00 0.15 0.00 92 1007.4
20260505061532 10 123 0.0 3.2 0.00 0.15 0.00 92 1007.3
20260505061431 10 125 0.0 3.2 0.00 0.15 0.00 92 1007.3
20260505061329 10 125 0.0 3.2 0.00 0.15 0.00 92 1007.3
20260505061321 10 125 0.0 1.6 0.00 0.15 0.00 93 1007.2
20260505061316 10 125 0.0 3.2 0.00 0.15 0.00 92 1007.3
20260505061312 10 125 0.0 3.2 0.00 0.15 0.00 92 1007.2
20260505061029 10 125 0.0 1.6 0.00 0.15 0.00 93 1007.3
20260505060929 10 125 0.0 3.2 0.00 0.15 0.00 93 1007.3
20260505060828 10 125 0.0 3.2 0.00 0.15 0.00 93 1007.3
20260505060729 10 125 0.0 3.2 0.00 0.15 0.00 93 1007.3
20260505060601 10 125 0.0 3.2 0.00 0.15 0.00 93 1007.3
20260505060529 10 125 0.0 3.2 0.00 0.15 0.00 93 1007.3
20260505060429 10 125 0.0 3.2 0.00 0.15 0.00 93 1007.3
20260505060329 10 125 0.0 3.2 0.00 0.15 0.00 93 1007.3
20260505060229 9 125 0.0 3.2 0.00 0.15 0.00 93 1007.3
20260505060129 9 125 0.0 3.2 0.00 0.15 0.00 94 1007.3
20260505060029 9 125 0.0 3.2 0.00 0.15 0.00 94 1007.3
20260505055929 9 125 0.0 3.2 0.00 0.15 0.00 94 1007.3
20260505055829 9 125 0.0 3.2 0.00 0.15 0.00 94 1007.3
20260505055729 9 125 0.0 3.2 0.00 0.15 0.00 94 1007.3
20260505055629 9 125 0.0 3.2 0.00 0.15 0.00 94 1007.3
20260505055529 9 125 0.0 3.2 0.00 0.15 0.00 94 1007.3
20260505055429 9 125 0.0 3.2 0.00 0.15 0.00 94 1007.3
20260505055328 9 125 0.0 3.2 0.00 0.15 0.00 94 1007.3
20260505055228 9 126 0.0 3.2 0.00 0.15 0.00 94 1007.3
20260505055128 9 126 0.0 3.2 0.00 0.15 0.00 94 1007.3
20260505055028 9 126 0.0 3.2 0.00 0.15 0.00 94 1007.2
20260505054929 9 126 0.0 3.2 0.00 0.15 0.00 94 1007.2
20260505054829 9 126 0.0 3.2 0.00 0.15 0.00 94 1007.3
20260505054729 9 126 1.6 3.2 0.00 0.15 0.00 94 1007.2
20260505054629 8 126 1.6 4.8 0.00 0.15 0.00 94 1007.3
20260505054528 8 126 1.6 4.8 0.00 0.15 0.00 94 1007.3
20260505054429 8 126 1.6 4.8 0.00 0.15 0.00 94 1007.3
20260505054329 8 126 1.6 4.8 0.00 0.15 0.00 94 1007.3
20260505054305 8 126 1.6 4.8 0.00 0.15 0.00 94 1007.2
20260505054255 8 126 1.6 4.8 0.00 0.15 0.00 94 1007.3
20260505054251 8 126 1.6 4.8 0.00 0.15 0.00 94 1007.2
20260505054029 8 126 1.6 4.8 0.00 0.15 0.00 94 1007.2
20260505053929 8 126 1.6 4.8 0.00 0.15 0.00 94 1007.2
20260505053829 8 126 1.6 4.8 0.00 0.15 0.00 94 1007.2
20260505053729 8 126 1.6 4.8 0.00 0.15 0.00 94 1007.2
20260505053629 8 126 1.6 4.8 0.00 0.15 0.00 94 1007.1
20260505053529 8 101 1.6 4.8 0.00 0.15 0.00 94 1007.1
20260505053500 8 99 0.0 3.2 0.00 0.15 0.00 94 1007.1
20260505053327 8 99 0.0 3.2 0.00 0.15 0.00 94 1007.1
20260505053226 8 99 0.0 3.2 0.00 0.15 0.00 94 1007.1
20260505053124 8 99 1.6 3.2 0.00 0.15 0.00 95 1007.1
20260505053023 8 99 1.6 4.8 0.00 0.15 0.00 94 1007.1
20260505052920 8 99 1.6 6.4 0.00 0.15 0.00 94 1007.1
20260505052821 8 99 1.6 6.4 0.00 0.15 0.00 95 1007.1
20260505052721 8 99 1.6 6.4 0.00 0.15 0.00 95 1007.1
20260505052619 8 98 1.6 6.4 0.00 0.15 0.00 95 1007.1
20260505052517 8 98 1.6 6.4 0.00 0.15 0.00 95 1007.1
20260505052411 8 98 1.6 6.4 0.00 0.15 0.00 95 1007.1
20260505052311 8 98 1.6 6.4 0.00 0.15 0.00 94 1007.1
20260505052211 8 98 1.6 6.4 0.00 0.15 0.00 94 1007.2
20260505052110 8 99 1.6 6.4 0.00 0.15 0.00 94 1007.2
20260505052037 8 99 0.0 6.4 0.00 0.15 0.00 94 1007.1
20260505052010 8 98 0.0 6.4 0.00 0.15 0.00 94 1007.1
20260505051907 7 78 0.0 3.2 0.00 0.15 0.00 94 1007.1
20260505051807 7 77 0.0 3.2 0.00 0.15 0.00 94 1007.1
20260505051803 7 77 0.0 3.2 0.00 0.15 0.00 94 1007.1
20260505051752 7 77 0.0 3.2 0.00 0.15 0.00 95 1007.1
20260505051748 7 77 0.0 3.2 0.00 0.15 0.00 94 1007.1
20260505051507 7 77 0.0 3.2 0.00 0.15 0.00 94 1007.1
20260505051400 7 77 0.0 3.2 0.00 0.15 0.00 94 1007.1
20260505051301 7 77 0.0 3.2 0.00 0.15 0.00 94 1007.1
20260505051201 7 77 0.0 3.2 0.00 0.15 0.00 94 1007.1
20260505051101 7 77 0.0 3.2 0.00 0.15 0.00 94 1007.1
20260505051036 7 77 1.6 3.2 0.00 0.15 0.00 94 1007.1
20260505051005 7 77 1.6 3.2 0.00 0.15 0.00 94 1007.1
20260505050901 7 77 1.6 3.2 0.00 0.15 0.00 94 1007.1
20260505050801 7 77 1.6 3.2 0.00 0.15 0.00 94 1007.2
20260505050755 7 77 0.0 3.2 0.00 0.15 0.00 94 1007.2
20260505050750 7 77 1.6 3.2 0.00 0.15 0.00 94 1007.2
20260505050746 7 77 0.0 3.2 0.00 0.15 0.00 94 1007.2
20260505050501 7 77 0.0 3.2 0.00 0.15 0.00 94 1007.2
20260505050401 7 77 0.0 3.2 0.00 0.15 0.00 94 1007.2
20260505050302 7 77 0.0 3.2 0.00 0.15 0.00 94 1007.2
20260505050258 7 67 0.0 3.2 0.00 0.15 0.00 93 1007.3
20260505050249 7 73 0.0 3.2 0.00 0.15 0.00 94 1007.2
20260505050245 7 71 0.0 3.2 0.00 0.15 0.00 93 1007.3
20260505041701 6 20 0.0 0.0 0.00 0.15 0.00 92 1007.4
20260505041601 6 20 0.0 0.0 0.00 0.15 0.00 92 1007.4
20260505041500 6 20 0.0 0.0 0.00 0.15 0.00 92 1007.4
20260505041400 6 20 0.0 0.0 0.00 0.15 0.00 92 1007.4
20260505041301 6 20 0.0 0.0 0.00 0.15 0.00 92 1007.4
20260505041202 6 20 0.0 0.0 0.00 0.15 0.00 92 1007.4
20260505041102 6 20 0.0 1.6 0.00 0.15 0.00 92 1007.4
20260505041000 6 20 0.0 1.6 0.00 0.15 0.00 92 1007.4
20260505040900 6 20 0.0 1.6 0.00 0.15 0.00 92 1007.5
20260505040758 6 20 0.0 1.6 0.00 0.15 0.00 92 1007.5
20260505040656 6 20 0.0 1.6 0.00 0.15 0.00 92 1007.5
20260505040528 6 20 0.0 1.6 0.00 0.15 0.00 92 1007.5
20260505040451 6 20 0.0 1.6 0.00 0.15 0.00 92 1007.6
20260505040351 6 20 0.0 1.6 0.00 0.15 0.00 92 1007.5
20260505040251 6 20 0.0 1.6 0.00 0.15 0.00 91 1007.5
20260505040150 6 20 0.0 1.6 0.00 0.15 0.00 91 1007.5
20260505040029 6 20 0.0 1.6 0.00 0.15 0.00 91 1007.5
20260505035951 6 20 0.0 1.6 0.00 0.15 0.00 91 1007.5
20260505035851 6 20 0.0 1.6 0.00 0.15 0.00 91 1007.5
20260505035749 6 20 0.0 1.6 0.00 0.15 0.00 91 1007.5
20260505035649 6 20 0.0 1.6 0.00 0.15 0.00 91 1007.5
20260505035529 6 20 0.0 1.6 0.00 0.15 0.00 91 1007.5
20260505035448 6 20 0.0 1.6 0.00 0.15 0.00 91 1007.5
20260505035346 6 20 0.0 1.6 0.00 0.15 0.00 91 1007.4
20260505035246 6 20 0.0 1.6 0.00 0.15 0.00 91 1007.4
20260505035144 6 20 0.0 1.6 0.00 0.15 0.00 91 1007.5
20260505035029 6 20 0.0 1.6 0.00 0.15 0.00 91 1007.4
20260505034945 6 20 0.0 1.6 0.00 0.15 0.00 91 1007.5
20260505034845 6 20 0.0 1.6 0.00 0.15 0.00 91 1007.5
20260505034745 6 20 0.0 1.6 0.00 0.15 0.00 90 1007.5
20260505034645 6 20 0.0 1.6 0.00 0.15 0.00 90 1007.5
20260505034528 6 20 0.0 1.6 0.00 0.15 0.00 90 1007.5
20260505034444 6 20 0.0 1.6 0.00 0.15 0.00 90 1007.5
20260505034344 6 20 0.0 1.6 0.00 0.15 0.00 90 1007.5
20260505034244 6 20 0.0 1.6 0.00 0.15 0.00 90 1007.5
20260505034145 6 20 0.0 1.6 0.00 0.15 0.00 90 1007.5
20260505034031 6 20 0.0 1.6 0.00 0.15 0.00 90 1007.5
20260505033944 6 20 0.0 1.6 0.00 0.15 0.00 90 1007.5
20260505033843 6 20 0.0 1.6 0.00 0.15 0.00 90 1007.5
20260505033743 6 20 0.0 1.6 0.00 0.15 0.00 90 1007.5
20260505033642 6 20 0.0 1.6 0.00 0.15 0.00 90 1007.5
20260505033530 6 20 0.0 1.6 0.00 0.15 0.00 90 1007.5
20260505033443 6 20 0.0 1.6 0.00 0.15 0.00 89 1007.5
20260505033342 6 20 0.0 1.6 0.00 0.15 0.00 89 1007.6
20260505033242 7 20 0.0 1.6 0.00 0.15 0.00 89 1007.6
20260505033143 7 20 0.0 1.6 0.00 0.15 0.00 89 1007.6
20260505033028 7 20 0.0 1.6 0.00 0.15 0.00 89 1007.6
20260505032943 7 20 0.0 1.6 0.00 0.15 0.00 89 1007.6
20260505032843 7 20 0.0 1.6 0.00 0.15 0.00 90 1007.6
20260505032742 7 20 0.0 1.6 0.00 0.15 0.00 90 1007.6
20260505032642 7 20 0.0 1.6 0.00 0.15 0.00 90 1007.6
20260505032529 7 20 0.0 1.6 0.00 0.15 0.00 90 1007.6
20260505032439 7 20 0.0 1.6 0.00 0.15 0.00 90 1007.6
20260505032338 7 20 0.0 1.6 0.00 0.15 0.00 90 1007.6
20260505032239 7 20 0.0 1.6 0.00 0.15 0.00 90 1007.6
20260505032139 7 20 0.0 1.6 0.00 0.15 0.00 90 1007.6
20260505032029 7 20 0.0 1.6 0.00 0.15 0.00 90 1007.6
20260505031938 7 20 0.0 1.6 0.00 0.15 0.00 90 1007.6
20260505031838 7 20 0.0 1.6 0.00 0.15 0.00 90 1007.6
20260505031739 7 20 0.0 1.6 0.00 0.15 0.00 90 1007.5
20260505031638 7 20 0.0 0.0 0.00 0.15 0.00 90 1007.6
20260505031529 7 20 0.0 0.0 0.00 0.15 0.00 90 1007.6
20260505031439 7 20 0.0 0.0 0.00 0.15 0.00 90 1007.6
20260505031338 7 20 0.0 1.6 0.00 0.15 0.00 90 1007.6
20260505031238 7 20 0.0 1.6 0.00 0.15 0.00 90 1007.6
20260505031139 7 20 0.0 1.6 0.00 0.15 0.00 90 1007.6
20260505031039 7 20 0.0 1.6 0.00 0.15 0.00 90 1007.6
20260505031029 7 20 0.0 1.6 0.00 0.15 0.00 90 1007.6
20260505030939 7 20 0.0 1.6 0.00 0.15 0.00 90 1007.6
20260505030843 7 20 0.0 1.6 0.00 0.15 0.00 90 1007.6
20260505030739 7 20 0.0 1.6 0.00 0.15 0.00 90 1007.7
20260505030638 7 20 0.0 1.6 0.00 0.15 0.00 90 1007.7
20260505030528 7 20 0.0 1.6 0.00 0.15 0.00 90 1007.7
20260505030434 7 20 0.0 1.6 0.00 0.15 0.00 90 1007.7
20260505030339 7 20 0.0 1.6 0.00 0.15 0.00 90 1007.7
20260505030235 7 20 0.0 0.0 0.00 0.15 0.00 90 1007.7
20260505030135 7 20 0.0 0.0 0.00 0.15 0.00 90 1007.7
20260505030028 7 20 0.0 0.0 0.00 0.15 0.00 90 1007.7
20260505025935 7 20 0.0 0.0 0.00 0.15 0.00 90 1007.7
20260505025835 7 20 0.0 1.6 0.00 0.15 0.00 90 1007.7
20260505025735 7 20 0.0 1.6 0.00 0.15 0.00 90 1007.7
20260505025635 7 20 0.0 1.6 0.00 0.15 0.00 90 1007.7
20260505025529 7 20 0.0 1.6 0.00 0.15 0.00 90 1007.7
20260505025434 7 20 0.0 1.6 0.00 0.15 0.00 90 1007.7
20260505025334 7 20 0.0 1.6 0.00 0.15 0.00 90 1007.7
20260505025248 7 20 0.0 1.6 0.00 0.15 0.00 90 1007.7
20260505025244 7 20 0.0 1.6 0.00 0.15 0.00 90 1007.8
20260505025240 7 20 0.0 1.6 0.00 0.15 0.00 90 1007.8
20260505024935 7 20 0.0 1.6 0.00 0.15 0.00 90 1007.8
20260505024834 7 20 0.0 0.0 0.00 0.15 0.00 90 1007.8
20260505024734 7 20 0.0 0.0 0.00 0.15 0.00 90 1007.8
20260505024629 7 20 0.0 1.6 0.00 0.15 0.00 90 1007.8
20260505024529 7 20 0.0 1.6 0.00 0.15 0.00 90 1007.8
20260505024429 7 20 0.0 1.6 0.00 0.15 0.00 89 1007.9
20260505024330 7 20 0.0 1.6 0.00 0.15 0.00 89 1007.9
20260505024229 7 20 0.0 1.6 0.00 0.15 0.00 89 1007.9
20260505024129 7 20 0.0 1.6 0.00 0.15 0.00 89 1008.0
20260505024031 7 20 0.0 1.6 0.00 0.15 0.00 89 1008.0
20260505023929 7 20 0.0 1.6 0.00 0.15 0.00 89 1008.0
20260505023829 7 20 0.0 1.6 0.00 0.15 0.00 89 1008.0
20260505023728 7 20 0.0 1.6 0.00 0.15 0.00 89 1008.0
20260505023629 7 20 0.0 1.6 0.00 0.15 0.00 88 1008.1
20260505023529 7 20 0.0 0.0 0.00 0.15 0.00 88 1008.0
20260505023429 8 20 0.0 0.0 0.00 0.15 0.00 88 1008.1
20260505023329 8 20 0.0 0.0 0.00 0.15 0.00 88 1008.1
20260505023229 8 20 0.0 0.0 0.00 0.15 0.00 88 1008.1
20260505023129 8 20 0.0 0.0 0.00 0.15 0.00 88 1008.1
20260505023029 8 20 0.0 0.0 0.00 0.15 0.00 88 1008.1
20260505022929 8 20 0.0 0.0 0.00 0.15 0.00 88 1008.2
20260505022829 8 20 0.0 0.0 0.00 0.15 0.00 88 1008.2
20260505022727 8 20 0.0 1.6 0.00 0.15 0.00 88 1008.2
20260505022627 8 20 0.0 1.6 0.00 0.15 0.00 89 1008.2
20260505022527 8 20 0.0 1.6 0.00 0.15 0.00 89 1008.2
20260505022426 8 20 0.0 1.6 0.00 0.15 0.00 89 1008.2
20260505022326 8 20 0.0 1.6 0.00 0.15 0.00 90 1008.2
20260505022227 8 20 0.0 1.6 0.00 0.15 0.00 90 1008.2
20260505022126 8 20 0.0 1.6 0.00 0.15 0.00 91 1008.2
20260505022027 8 20 0.0 3.2 0.00 0.15 0.00 91 1008.2
20260505021927 8 20 0.0 3.2 0.00 0.15 0.00 91 1008.2
20260505021831 8 20 0.0 3.2 0.00 0.15 0.00 91 1008.2
20260505021726 8 20 1.6 3.2 0.00 0.15 0.00 91 1008.3
20260505021626 8 20 1.6 3.2 0.00 0.15 0.00 92 1008.3
20260505021526 8 20 1.6 3.2 0.00 0.15 0.00 92 1008.3
20260505021426 8 20 1.6 3.2 0.00 0.15 0.00 92 1008.4
20260505021327 8 20 1.6 3.2 0.00 0.15 0.00 92 1008.4
20260505021227 8 20 1.6 3.2 0.00 0.15 0.00 92 1008.4
20260505021126 8 20 1.6 3.2 0.00 0.15 0.00 92 1008.4
20260505021026 8 20 1.6 3.2 0.00 0.15 0.00 92 1008.4
20260505020926 8 20 1.6 3.2 0.00 0.15 0.00 92 1008.4
20260505020822 8 20 1.6 3.2 0.00 0.15 0.00 92 1008.6
20260505020723 8 20 1.6 3.2 0.00 0.15 0.00 92 1008.4
20260505020623 8 20 1.6 3.2 0.00 0.15 0.00 92 1008.6
20260505020522 8 20 1.6 3.2 0.00 0.15 0.00 92 1008.6
20260505020422 8 20 1.6 3.2 0.00 0.15 0.00 92 1008.6
20260505020322 8 20 1.6 3.2 0.00 0.15 0.00 92 1008.6
20260505020223 8 20 1.6 3.2 0.00 0.15 0.00 92 1008.6
20260505020122 8 20 1.6 3.2 0.00 0.15 0.00 92 1008.6
20260505020022 8 20 1.6 3.2 0.00 0.15 0.00 92 1008.6
20260505015920 8 20 1.6 3.2 0.00 0.15 0.00 92 1008.6
20260505015818 8 20 1.6 3.2 0.00 0.15 0.00 91 1008.6
20260505015718 8 20 1.6 3.2 0.00 0.15 0.00 91 1008.6
20260505015617 8 20 1.6 4.8 0.00 0.15 0.00 91 1008.4
20260505015516 8 20 1.6 4.8 0.00 0.15 0.00 91 1008.4
20260505015412 8 20 1.6 4.8 0.00 0.15 0.00 91 1008.4
20260505015311 8 20 1.6 4.8 0.00 0.15 0.00 91 1008.6
20260505015208 8 20 1.6 4.8 0.00 0.15 0.00 91 1008.6
20260505015108 8 20 1.6 4.8 0.00 0.15 0.00 91 1008.4
20260505015006 8 20 1.6 4.8 0.00 0.15 0.00 91 1008.6
20260505014906 8 20 1.6 4.8 0.00 0.15 0.00 91 1008.6
20260505014804 8 20 1.6 4.8 0.00 0.15 0.00 91 1008.6
20260505014702 8 43 1.6 4.8 0.00 0.15 0.00 91 1008.4
20260505014602 8 51 1.6 3.2 0.00 0.15 0.00 91 1008.6
20260505014531 8 107 0.0 3.2 0.00 0.15 0.00 91 1008.6
20260505014501 8 108 0.0 3.2 0.00 0.15 0.00 91 1008.6
20260505014402 8 108 0.0 3.2 0.00 0.15 0.00 91 1008.6
20260505014303 8 108 0.0 1.6 0.00 0.15 0.00 91 1008.6
20260505014258 8 108 0.0 1.6 0.00 0.15 0.00 91 1008.6
20260505014245 8 108 0.0 1.6 0.00 0.15 0.00 91 1008.6
20260505014241 8 108 0.0 1.6 0.00 0.15 0.00 91 1008.6
20260505014001 8 108 0.0 1.6 0.00 0.15 0.00 91 1008.6
20260505013901 8 108 0.0 1.6 0.00 0.15 0.00 91 1008.7
20260505013801 8 108 0.0 1.6 0.00 0.15 0.00 90 1008.6
20260505013701 8 108 0.0 1.6 0.00 0.15 0.00 90 1008.6
20260505013601 8 108 0.0 1.6 0.00 0.15 0.00 90 1008.4
20260505013501 8 108 0.0 0.0 0.00 0.15 0.00 90 1008.6
20260505013401 8 108 0.0 0.0 0.00 0.15 0.00 90 1008.4
20260505013301 8 108 0.0 0.0 0.00 0.15 0.00 90 1008.4
20260505013201 8 108 0.0 0.0 0.00 0.15 0.00 90 1008.4
20260505013101 8 108 0.0 0.0 0.00 0.15 0.00 90 1008.4
20260505013030 8 108 0.0 0.0 0.00 0.15 0.00 90 1008.4
20260505013001 9 109 0.0 0.0 0.00 0.15 0.00 90 1008.4
20260505012901 9 108 0.0 0.0 0.00 0.15 0.00 90 1008.6
20260505012801 9 108 0.0 0.0 0.00 0.15 0.00 90 1008.6
20260505012701 9 108 0.0 0.0 0.00 0.15 0.00 90 1008.4
20260505012601 9 108 0.0 0.0 0.00 0.15 0.00 90 1008.6
20260505012529 9 108 0.0 0.0 0.00 0.15 0.00 90 1008.6
20260505012500 9 108 0.0 1.6 0.00 0.15 0.00 90 1008.6
20260505012400 9 108 0.0 1.6 0.00 0.15 0.00 90 1008.6
20260505012258 9 108 0.0 1.6 0.00 0.15 0.00 90 1008.4
20260505012203 9 108 0.0 1.6 0.00 0.15 0.00 90 1008.6
20260505012029 9 108 0.0 1.6 0.00 0.15 0.00 90 1008.6
20260505011957 9 108 0.0 1.6 0.00 0.15 0.00 90 1008.7
20260505011852 9 108 0.0 1.6 0.00 0.15 0.00 90 1008.6
20260505011752 9 108 0.0 1.6 0.00 0.15 0.00 90 1008.6
20260505011652 9 108 0.0 1.6 0.00 0.15 0.00 90 1008.6
20260505011552 9 108 0.0 1.6 0.00 0.15 0.00 90 1008.7
20260505011529 9 108 0.0 1.6 0.00 0.15 0.00 91 1008.7
20260505011452 9 108 0.0 1.6 0.00 0.15 0.00 90 1008.6
20260505011352 9 108 0.0 0.0 0.00 0.15 0.00 91 1008.6
20260505011252 9 108 0.0 0.0 0.00 0.15 0.00 91 1008.7
20260505011152 9 108 0.0 0.0 0.00 0.15 0.00 91 1008.6
20260505011031 9 108 0.0 0.0 0.00 0.15 0.00 90 1008.7
20260505010953 9 108 0.0 0.0 0.00 0.15 0.00 90 1008.6
20260505010853 9 108 0.0 0.0 0.00 0.15 0.00 90 1008.6
20260505010752 9 108 0.0 0.0 0.00 0.15 0.00 90 1008.6
20260505010650 9 108 0.0 0.0 0.00 0.15 0.00 90 1008.6
20260505010529 9 108 0.0 0.0 0.00 0.15 0.00 90 1008.6
20260505010450 9 108 0.0 0.0 0.00 0.15 0.00 90 1008.6
20260505010348 9 108 0.0 0.0 0.00 0.15 0.00 90 1008.6
20260505010247 9 108 0.0 0.0 0.00 0.15 0.00 90 1008.6
20260505010144 9 108 0.0 0.0 0.00 0.15 0.00 90 1008.6
20260505010029 9 108 0.0 0.0 0.00 0.15 0.00 90 1008.6
20260505005944 9 108 0.0 0.0 0.00 0.15 0.00 90 1008.6
20260505005843 9 108 0.0 0.0 0.00 0.15 0.00 90 1008.7
20260505005740 9 108 0.0 0.0 0.00 0.15 0.00 90 1008.6
20260505005640 9 108 0.0 0.0 0.00 0.15 0.00 90 1008.6
20260505005529 9 108 0.0 0.0 0.00 0.15 0.00 90 1008.7
20260505005441 9 108 0.0 0.0 0.00 0.15 0.00 90 1008.7
20260505005336 9 108 0.0 0.0 0.00 0.15 0.00 90 1008.6
20260505005240 9 108 0.0 0.0 0.00 0.15 0.00 90 1008.7
20260505005134 10 108 0.0 0.0 0.00 0.15 0.00 90 1008.7
20260505005028 10 108 0.0 0.0 0.00 0.15 0.00 90 1008.6
20260505004936 10 108 0.0 0.0 0.00 0.15 0.00 90 1008.7
20260505004829 10 108 0.0 0.0 0.00 0.15 0.00 90 1008.7
20260505004734 10 108 0.0 0.0 0.00 0.15 0.00 90 1008.7
20260505004629 10 108 0.0 1.6 0.00 0.15 0.00 90 1008.7
20260505004531 10 108 0.0 1.6 0.00 0.15 0.00 89 1008.7
20260505004429 10 108 0.0 1.6 0.00 0.15 0.00 89 1008.7
20260505004329 10 108 0.0 1.6 0.00 0.15 0.00 89 1008.7
20260505004234 10 108 0.0 1.6 0.00 0.15 0.00 89 1008.7
20260505004129 10 108 0.0 1.6 0.00 0.15 0.00 89 1008.7
20260505004031 10 108 0.0 1.6 0.00 0.15 0.00 89 1008.7
20260505003929 10 108 0.0 1.6 0.00 0.15 0.00 89 1008.7
20260505003826 10 108 0.0 1.6 0.00 0.15 0.00 89 1008.8
20260505003729 10 108 0.0 3.2 0.00 0.15 0.00 89 1008.8
20260505003626 10 108 0.0 3.2 0.00 0.15 0.00 89 1008.8
20260505003524 10 108 1.6 3.2 0.00 0.15 0.00 89 1008.8
20260505003424 10 108 1.6 3.2 0.00 0.15 0.00 90 1008.8
20260505003322 10 108 1.6 3.2 0.00 0.15 0.00 90 1008.9
20260505003224 10 108 1.6 3.2 0.00 0.15 0.00 90 1008.8
20260505003117 10 108 1.6 3.2 0.00 0.15 0.00 90 1008.8
20260505003016 10 108 1.6 3.2 0.00 0.15 0.00 90 1008.8
20260505002916 10 108 1.6 3.2 0.00 0.15 0.00 90 1008.8
20260505002816 10 108 0.0 3.2 0.00 0.15 0.00 90 1008.8
20260505002718 10 108 0.0 3.2 0.00 0.15 0.00 90 1008.8
20260505002610 10 108 0.0 3.2 0.00 0.15 0.00 90 1008.8
20260505002529 10 108 0.0 3.2 0.00 0.15 0.00 90 1008.8
20260505002508 10 109 0.0 3.2 0.00 0.15 0.00 89 1008.8
20260505002409 10 109 0.0 3.2 0.00 0.15 0.00 89 1008.8
20260505002211 10 109 0.0 0.0 0.00 0.15 0.00 89 1008.8
20260505002104 10 109 0.0 0.0 0.00 0.15 0.00 90 1008.9
20260505002025 10 109 0.0 0.0 0.00 0.15 0.00 90 1008.9
20260505002002 10 109 0.0 0.0 0.00 0.15 0.00 89 1008.9
20260505001902 10 109 0.0 0.0 0.00 0.15 0.00 90 1008.9
20260505001802 10 109 0.0 0.0 0.00 0.15 0.00 90 1008.9
20260505001706 10 109 0.0 0.0 0.00 0.15 0.00 90 1008.9
20260505001602 10 109 0.0 0.0 0.00 0.15 0.00 90 1008.9
20260505001501 10 109 0.0 0.0 0.00 0.15 0.00 90 1008.9
20260505001401 10 109 0.0 0.0 0.00 0.15 0.00 90 1008.9
20260505001301 10 109 0.0 0.0 0.00 0.15 0.00 90 1008.9
20260505001201 10 109 0.0 0.0 0.00 0.15 0.00 90 1008.9
20260505001102 10 109 0.0 0.0 0.00 0.15 0.00 90 1008.9
20260505001014 10 109 0.0 0.0 0.00 0.15 0.00 90 1008.9
20260505001001 10 109 0.0 1.6 0.00 0.15 0.00 90 1008.9
20260505000901 10 109 0.0 1.6 0.00 0.15 0.00 90 1008.9
20260505000801 10 109 0.0 3.2 0.00 0.15 0.00 90 1008.9
20260505000701 10 109 0.0 3.2 0.00 0.15 0.00 90 1008.9
20260505000600 10 109 0.0 3.2 0.00 0.15 0.00 90 1008.9
20260505000501 10 109 0.0 3.2 0.00 0.15 0.00 90 1008.9
20260505000401 10 109 0.0 3.2 0.00 0.15 0.00 90 1008.9
20260505000301 10 109 0.0 3.2 0.00 0.15 0.00 90 1009.0
20260505000235 10 109 0.0 3.2 0.00 0.15 0.00 90 1009.0
20260505000228 10 109 0.0 3.2 0.00 0.15 0.00 90 1009.0
20260505000220 10 109 0.0 3.2 0.00 0.15 0.00 90 1009.0
20260505000001 10 109 0.0 3.2 0.00 0.15 0.00 90 1009.0
20260504235900 10 109 0.0 3.2 0.00 0.15 0.00 90 1009.0
20260504235800 10 109 0.0 1.6 0.00 0.15 0.00 90 1009.0
20260504235741 10 109 0.0 1.6 0.00 0.15 0.00 90 1009.0
20260504235729 10 109 0.0 1.6 0.00 0.15 0.00 90 1009.0
20260504235721 10 109 0.0 1.6 0.00 0.15 0.00 90 1009.0
20260504235500 10 109 0.0 1.6 0.00 0.15 0.00 90 1009.0
20260504235401 10 109 0.0 1.6 0.00 0.15 0.00 90 1009.0
20260504235301 10 109 0.0 0.0 0.00 0.15 0.00 90 1009.0
20260504235201 10 109 0.0 0.0 0.00 0.15 0.00 90 1009.0
20260504235101 10 109 0.0 0.0 0.00 0.15 0.00 90 1009.0
20260504235000 10 109 0.0 1.6 0.00 0.15 0.00 90 1009.1
20260504234900 10 109 0.0 1.6 0.00 0.15 0.00 90 1009.1
20260504234806 10 109 0.0 3.2 0.00 0.15 0.00 90 1009.1
20260504234702 10 109 0.0 3.2 0.00 0.15 0.00 90 1009.1
20260504234601 10 109 0.0 3.2 0.00 0.15 0.00 90 1009.1
20260504234502 10 109 0.0 3.2 0.00 0.15 0.00 90 1009.1
20260504234302 10 109 0.0 3.2 0.00 0.15 0.00 90 1009.1
20260504234201 10 109 0.0 3.2 0.00 0.15 0.00 90 1009.1
20260504234102 10 109 0.0 3.2 0.00 0.15 0.00 90 1009.1
20260504234001 10 109 0.0 3.2 0.00 0.15 0.00 90 1009.2
20260504233901 10 109 0.0 3.2 0.00 0.15 0.00 90 1009.2
20260504233801 10 109 0.0 3.2 0.00 0.15 0.00 90 1009.2
20260504233731 10 109 0.0 3.2 0.00 0.15 0.00 90 1009.2
20260504233725 10 109 0.0 3.2 0.00 0.15 0.00 90 1009.2
20260504233717 10 109 0.0 3.2 0.00 0.15 0.00 90 1009.2
20260504233501 10 109 0.0 3.2 0.00 0.15 0.00 90 1009.2
20260504233401 10 109 0.0 3.2 0.00 0.15 0.00 90 1009.3
20260504233301 10 109 0.0 3.2 0.00 0.15 0.00 90 1009.3
20260504233232 10 110 0.0 3.2 0.00 0.15 0.00 90 1009.2
20260504233224 10 109 0.0 3.2 0.00 0.15 0.00 90 1009.2
20260504233216 10 110 0.0 3.2 0.00 0.15 0.00 90 1009.3
20260504233001 10 110 0.0 3.2 0.00 0.15 0.00 90 1009.2
20260504232900 10 110 0.0 3.2 0.00 0.15 0.00 90 1009.3
20260504232800 10 110 0.0 3.2 0.00 0.15 0.00 90 1009.3
20260504232730 10 110 0.0 1.6 0.00 0.15 0.00 90 1009.3
20260504232721 10 110 0.0 1.6 0.00 0.15 0.00 90 1009.3
20260504232713 10 110 0.0 1.6 0.00 0.15 0.00 90 1009.3
20260504232456 10 111 0.0 1.6 0.00 0.15 0.00 90 1009.3
20260504232356 10 111 0.0 1.6 0.00 0.15 0.00 90 1009.3
20260504232256 10 111 0.0 1.6 0.00 0.15 0.00 90 1009.3
20260504232156 10 110 0.0 1.6 0.00 0.15 0.00 90 1009.3
20260504232056 10 110 0.0 3.2 0.00 0.15 0.00 90 1009.3
20260504232002 10 110 0.0 3.2 0.00 0.15 0.00 90 1009.3
20260504231953 10 111 0.0 3.2 0.00 0.15 0.00 90 1009.3
20260504231854 10 111 0.0 3.2 0.00 0.15 0.00 90 1009.4
20260504231754 10 111 0.0 3.2 0.00 0.15 0.00 90 1009.4
20260504231725 10 108 0.0 3.2 0.00 0.15 0.00 89 1009.4
20260504231721 10 108 0.0 3.2 0.00 0.15 0.00 90 1009.4
20260504231713 10 108 0.0 3.2 0.00 0.15 0.00 90 1009.4
20260504231450 10 108 0.0 3.2 0.00 0.15 0.00 89 1009.4
20260504231349 10 109 0.0 3.2 0.00 0.15 0.00 89 1009.4
20260504231250 10 108 0.0 3.2 0.00 0.15 0.00 89 1009.5
20260504231150 10 109 0.0 3.2 0.00 0.15 0.00 89 1009.4
20260504231049 10 109 0.0 3.2 0.00 0.15 0.00 89 1009.5
20260504231001 10 109 0.0 3.2 0.00 0.15 0.00 89 1009.5
20260504230948 10 109 0.0 3.2 0.00 0.15 0.00 89 1009.5
20260504230846 10 109 0.0 3.2 0.00 0.15 0.00 89 1009.5
20260504230746 10 107 0.0 3.2 0.00 0.15 0.00 89 1009.5
20260504230644 10 107 0.0 3.2 0.00 0.15 0.00 89 1009.5
20260504230542 10 101 0.0 3.2 0.00 0.15 0.00 89 1009.4
20260504230502 10 101 0.0 3.2 0.00 0.15 0.00 89 1009.4
20260504230440 10 103 0.0 3.2 0.00 0.15 0.00 89 1009.5
20260504230340 10 105 0.0 3.2 0.00 0.15 0.00 89 1009.5
20260504230240 10 105 0.0 3.2 0.00 0.15 0.00 89 1009.5
20260504230222 10 105 0.0 3.2 0.00 0.15 0.00 89 1009.5
20260504230214 10 105 1.6 3.2 0.00 0.15 0.00 89 1009.5
20260504225936 10 105 1.6 3.2 0.00 0.15 0.00 89 1009.4
20260504225834 10 105 1.6 4.8 0.00 0.15 0.00 89 1009.5
20260504225732 10 105 1.6 4.8 0.00 0.15 0.00 88 1009.4
20260504225632 10 96 1.6 4.8 0.00 0.15 0.00 88 1009.5
20260504225502 10 97 1.6 4.8 0.00 0.15 0.00 88 1009.5
20260504225430 10 97 1.6 4.8 0.00 0.15 0.00 88 1009.5
20260504225330 11 97 1.6 4.8 0.00 0.15 0.00 88 1009.5
20260504225230 11 97 1.6 4.8 0.00 0.15 0.00 88 1009.5
20260504225130 11 97 1.6 4.8 0.00 0.15 0.00 88 1009.5
20260504225001 11 97 1.6 4.8 0.00 0.15 0.00 87 1009.5
20260504224930 11 97 1.6 4.8 0.00 0.15 0.00 87 1009.5
20260504224830 11 104 1.6 3.2 0.00 0.15 0.00 87 1009.5
20260504224727 11 100 1.6 4.8 0.00 0.15 0.00 88 1009.5
20260504224628 11 94 1.6 6.4 0.00 0.15 0.00 88 1009.5
20260504224502 11 103 1.6 11.3 0.00 0.15 0.00 88 1009.5
20260504224428 11 103 1.6 11.3 0.00 0.15 0.00 88 1009.5
20260504224328 11 103 3.2 11.3 0.00 0.15 0.00 88 1009.5
20260504224224 11 103 3.2 11.3 0.00 0.15 0.00 88 1009.5
20260504224124 11 103 3.2 11.3 0.00 0.15 0.00 88 1009.5
20260504224001 11 103 1.6 11.3 0.00 0.15 0.00 87 1009.5
20260504223924 11 103 1.6 11.3 0.00 0.15 0.00 87 1009.5
20260504223822 11 103 1.6 11.3 0.00 0.15 0.00 87 1009.5
20260504223718 11 125 1.6 11.3 0.00 0.15 0.00 88 1009.5
20260504223618 11 126 1.6 11.3 0.00 0.15 0.00 88 1009.5
20260504223518 11 96 0.0 4.8 0.00 0.15 0.00 88 1009.5
20260504223458 11 72 0.0 4.8 0.00 0.15 0.00 88 1009.5
20260504223418 11 71 0.0 4.8 0.00 0.15 0.00 88 1009.5
20260504223316 11 318 0.0 0.0 0.00 0.15 0.00 88 1009.5
20260504223222 11 317 0.0 3.2 0.00 0.15 0.00 88 1009.4
20260504223216 11 317 0.0 3.2 0.00 0.15 0.00 88 1009.5
20260504223212 11 317 0.0 3.2 0.00 0.15 0.00 88 1009.5
20260504223203 11 317 0.0 3.2 0.00 0.15 0.00 88 1009.4
20260504222911 11 317 0.0 3.2 0.00 0.15 0.00 88 1009.4
20260504222809 11 317 1.6 3.2 0.00 0.15 0.00 88 1009.5
20260504222710 11 317 1.6 3.2 0.00 0.15 0.00 88 1009.4
20260504222612 11 317 1.6 3.2 0.00 0.15 0.00 88 1009.4
20260504222508 11 317 1.6 3.2 0.00 0.15 0.00 88 1009.4
20260504222452 11 317 1.6 3.2 0.00 0.15 0.00 88 1009.5
20260504222406 11 317 1.6 3.2 0.00 0.15 0.00 88 1009.5
20260504222305 11 317 1.6 3.2 0.00 0.15 0.00 88 1009.5
20260504222204 11 317 1.6 3.2 0.00 0.15 0.00 88 1009.5
20260504222101 11 317 1.6 3.2 0.00 0.15 0.00 88 1009.4
20260504222001 11 317 1.6 3.2 0.00 0.15 0.00 88 1009.5
20260504221952 11 317 1.6 3.2 0.00 0.15 0.00 88 1009.5
20260504221901 11 317 1.6 3.2 0.00 0.15 0.00 88 1009.5
20260504221801 11 317 1.6 3.2 0.00 0.15 0.00 88 1009.5
20260504221701 11 317 1.6 3.2 0.00 0.15 0.00 88 1009.5
20260504221601 11 317 1.6 3.2 0.00 0.15 0.00 88 1009.5
20260504221501 11 317 1.6 3.2 0.00 0.15 0.00 88 1009.5
20260504221451 11 317 1.6 3.2 0.00 0.15 0.00 88 1009.5
20260504221405 12 317 1.6 3.2 0.00 0.15 0.00 88 1009.5
20260504221301 12 317 0.0 3.2 0.00 0.15 0.00 88 1009.5
20260504221201 12 317 0.0 3.2 0.00 0.15 0.00 88 1009.5
20260504221101 12 317 0.0 3.2 0.00 0.15 0.00 88 1009.5
20260504221001 12 317 0.0 3.2 0.00 0.15 0.00 88 1009.5
20260504220952 12 317 1.6 3.2 0.00 0.15 0.00 88 1009.5
20260504220901 12 317 1.6 3.2 0.00 0.15 0.00 88 1009.5
20260504220801 12 317 1.6 3.2 0.00 0.15 0.00 87 1009.6
20260504220701 12 317 1.6 3.2 0.00 0.15 0.00 87 1009.6
20260504220606 12 317 1.6 3.2 0.00 0.15 0.00 87 1009.6
20260504220501 12 317 1.6 3.2 0.00 0.15 0.00 87 1009.6
20260504220452 12 317 1.6 3.2 0.00 0.15 0.00 87 1009.5
20260504220401 12 317 1.6 3.2 0.00 0.15 0.00 87 1009.5
20260504220300 12 317 1.6 3.2 0.00 0.15 0.00 87 1009.6
20260504220200 12 317 1.6 3.2 0.00 0.15 0.00 87 1009.6
20260504220103 12 317 1.6 3.2 0.00 0.15 0.00 87 1009.6
20260504220001 12 317 0.0 3.2 0.00 0.15 0.00 88 1009.7
20260504215951 12 317 0.0 3.2 0.00 0.15 0.15 88 1009.6
20260504215901 12 317 0.0 3.2 0.00 0.15 0.15 88 1009.6
20260504215801 12 317 0.0 3.2 0.00 0.15 0.15 88 1009.7
20260504215701 12 317 0.0 3.2 0.00 0.15 0.15 88 1009.7
20260504215600 12 317 0.0 0.0 0.00 0.15 0.15 87 1009.7
20260504215500 12 317 0.0 1.6 0.00 0.15 0.15 87 1009.7
20260504215449 12 317 0.0 1.6 0.00 0.15 0.15 87 1009.7
20260504215400 12 317 0.0 1.6 0.00 0.15 0.15 87 1009.7
20260504215300 12 317 0.0 1.6 0.00 0.15 0.15 87 1009.7
20260504215201 12 317 0.0 3.2 0.00 0.15 0.15 87 1009.7
20260504215101 12 317 0.0 3.2 0.00 0.15 0.15 87 1009.7
20260504215002 12 317 0.0 3.2 0.00 0.15 0.15 87 1009.7
20260504214948 12 317 0.0 3.2 0.00 0.15 0.15 87 1009.8
20260504214901 12 317 0.0 3.2 0.00 0.15 0.15 87 1009.8
20260504214759 12 317 0.0 3.2 0.00 0.15 0.15 87 1009.8
20260504214717 12 317 0.0 3.2 0.00 0.15 0.15 87 1009.8
20260504214712 12 317 0.0 3.2 0.00 0.15 0.15 87 1009.8
20260504214708 12 317 0.0 3.2 0.00 0.15 0.15 87 1009.8
20260504214700 12 317 0.0 3.2 0.00 0.15 0.15 87 1009.9
20260504214358 12 317 0.0 3.2 0.00 0.15 0.15 87 1009.9
20260504214253 12 317 0.0 3.2 0.00 0.15 0.15 87 1009.9
20260504214153 12 317 0.0 1.6 0.00 0.15 0.15 87 1009.9
20260504214053 12 317 0.0 0.0 0.00 0.15 0.15 87 1009.9
20260504213946 12 317 0.0 0.0 0.00 0.15 0.15 87 1009.8
20260504213852 12 317 0.0 0.0 0.00 0.15 0.15 86 1009.9
20260504213747 12 317 0.0 0.0 0.00 0.15 0.15 87 1009.9
20260504213647 12 317 0.0 1.6 0.00 0.15 0.15 86 1009.9
20260504213547 12 317 0.0 3.2 0.00 0.15 0.15 86 1009.9
20260504213445 12 317 1.6 4.8 0.00 0.15 0.15 86 1009.9
20260504213347 12 317 1.6 4.8 0.00 0.15 0.15 86 1009.9
20260504213247 12 317 1.6 4.8 0.00 0.15 0.15 86 1009.9
20260504213145 12 317 1.6 4.8 0.00 0.15 0.15 86 1010.0
20260504213046 12 317 1.6 4.8 0.00 0.15 0.15 86 1010.0
20260504212942 12 317 1.6 4.8 0.00 0.15 0.15 86 1010.0
20260504212904 12 317 1.6 4.8 0.00 0.15 0.15 86 1010.0
20260504212741 12 317 1.6 4.8 0.00 0.15 0.15 86 1010.0
20260504212639 12 317 1.6 4.8 0.00 0.15 0.15 86 1010.0
20260504212539 12 317 1.6 4.8 0.00 0.15 0.15 86 1010.0
20260504212443 12 317 1.6 4.8 0.00 0.15 0.15 86 1010.0
20260504212437 12 318 1.6 4.8 0.00 0.15 0.15 86 1010.0
20260504212335 12 319 1.6 4.8 0.00 0.15 0.15 86 1010.0
20260504212229 12 319 1.6 4.8 0.00 0.15 0.15 86 1010.0
20260504212129 12 319 3.2 4.8 0.00 0.15 0.15 86 1010.0
20260504212029 12 319 3.2 4.8 0.00 0.15 0.15 86 1010.0
20260504211929 12 319 3.2 4.8 0.00 0.15 0.15 86 1010.0
20260504211829 12 319 1.6 4.8 0.00 0.15 0.15 85 1010.0
20260504211729 12 319 3.2 4.8 0.00 0.15 0.15 85 1010.0
20260504211629 12 319 3.2 4.8 0.00 0.15 0.15 85 1010.0
20260504211529 12 319 3.2 4.8 0.00 0.15 0.15 85 1009.9
20260504211429 12 319 3.2 4.8 0.00 0.15 0.15 85 1010.0
20260504211330 12 319 3.2 4.8 0.00 0.15 0.15 85 1010.0
20260504211229 12 319 1.6 4.8 0.00 0.15 0.15 85 1010.0
20260504211129 12 296 1.6 4.8 0.00 0.15 0.15 85 1010.0
20260504211029 12 294 1.6 4.8 0.00 0.15 0.15 85 1010.0
20260504210942 12 295 1.6 4.8 0.00 0.15 0.15 85 1010.0
20260504210929 12 290 1.6 4.8 0.00 0.15 0.15 85 1010.0
20260504210829 12 290 1.6 4.8 0.00 0.15 0.15 85 1010.0
20260504210729 12 290 1.6 4.8 0.00 0.15 0.15 85 1010.0
20260504210629 13 276 1.6 4.8 0.00 0.15 0.15 86 1010.0
20260504210529 13 267 0.0 4.8 0.00 0.15 0.15 86 1010.0
20260504210440 13 260 0.0 4.8 0.00 0.15 0.15 86 1010.0
20260504210429 13 223 0.0 3.2 0.00 0.15 0.15 86 1010.0
20260504210329 13 150 0.0 3.2 0.00 0.15 0.15 86 1009.9
20260504210229 13 150 0.0 3.2 0.00 0.15 0.15 86 1009.9
20260504210207 13 150 0.0 3.2 0.00 0.15 0.15 85 1010.0
20260504210202 13 150 0.0 3.2 0.00 0.15 0.15 86 1009.9
20260504210158 13 150 0.0 3.2 0.00 0.15 0.15 86 1009.9
20260504205929 13 150 0.0 3.2 0.00 0.15 0.15 85 1010.0
20260504205829 13 150 0.0 3.2 0.00 0.15 0.15 85 1009.9
20260504205729 13 150 0.0 1.6 0.00 0.15 0.15 84 1009.9
20260504205629 13 150 0.0 1.6 0.00 0.15 0.15 84 1010.0
20260504205529 13 150 0.0 1.6 0.00 0.15 0.15 84 1009.9
20260504205429 13 150 0.0 1.6 0.00 0.15 0.15 84 1009.9
20260504205328 13 150 0.0 3.2 0.00 0.15 0.15 84 1009.9
20260504205228 13 150 0.0 3.2 0.00 0.15 0.15 84 1009.9
20260504205203 13 150 1.6 3.2 0.00 0.15 0.15 84 1009.9
20260504205158 13 150 0.0 3.2 0.00 0.15 0.15 84 1009.9
20260504205154 13 150 0.0 3.2 0.00 0.15 0.15 84 1009.9
20260504204928 13 150 1.6 3.2 0.00 0.15 0.15 84 1009.9
20260504204829 13 150 1.6 4.8 0.00 0.15 0.15 85 1009.9
20260504204729 13 150 1.6 4.8 0.00 0.15 0.15 83 1009.9
20260504204629 13 150 1.6 4.8 0.00 0.15 0.15 83 1009.9
20260504204529 13 150 1.6 4.8 0.00 0.15 0.15 83 1010.0
20260504204429 13 150 1.6 4.8 0.00 0.15 0.15 83 1010.0
20260504204329 13 150 1.6 4.8 0.00 0.15 0.15 83 1010.0
20260504204229 13 150 1.6 4.8 0.00 0.15 0.15 83 1010.0
20260504204129 13 150 1.6 4.8 0.00 0.15 0.15 83 1010.0
20260504204029 13 150 1.6 4.8 0.00 0.15 0.15 83 1010.1
20260504203928 13 150 1.6 4.8 0.00 0.15 0.15 83 1010.1
20260504203828 13 150 1.6 4.8 0.00 0.15 0.15 83 1010.1
20260504203729 13 149 1.6 4.8 0.00 0.15 0.15 83 1010.0
20260504203629 13 115 1.6 4.8 0.00 0.15 0.15 83 1010.1
20260504203529 13 115 1.6 4.8 0.00 0.15 0.15 83 1010.1
20260504203429 13 115 1.6 4.8 0.00 0.15 0.15 81 1010.1
20260504203329 13 115 1.6 4.8 0.00 0.15 0.15 80 1010.1
20260504203230 13 115 1.6 4.8 0.00 0.15 0.15 81 1010.0
20260504203129 13 116 1.6 4.8 0.00 0.15 0.15 82 1010.0
20260504203029 13 115 1.6 4.8 0.00 0.15 0.15 82 1010.1
20260504202928 13 106 1.6 4.8 0.00 0.15 0.15 82 1010.0
20260504202829 13 105 1.6 4.8 0.00 0.15 0.15 83 1010.0
20260504202729 13 96 1.6 4.8 0.00 0.15 0.15 82 1010.0
20260504202629 13 95 1.6 4.8 0.00 0.15 0.15 82 1010.0
20260504202529 13 95 1.6 6.4 0.00 0.15 0.15 82 1010.0
20260504202437 13 94 1.6 6.4 0.00 0.15 0.15 83 1010.0
20260504202429 13 93 1.6 6.4 0.00 0.15 0.15 83 1010.0
20260504202328 13 92 1.6 6.4 0.00 0.15 0.15 82 1010.0
20260504202230 13 92 1.6 6.4 0.00 0.15 0.15 82 1010.0
20260504202128 13 94 1.6 6.4 0.00 0.15 0.15 82 1009.9
20260504202029 13 61 1.6 6.4 0.00 0.15 0.15 82 1010.0
20260504201936 13 109 1.6 6.4 0.00 0.15 0.15 82 1009.9
20260504201929 13 110 1.6 6.4 0.00 0.15 0.15 82 1009.9
20260504201828 13 100 1.6 6.4 0.00 0.15 0.15 82 1010.0
20260504201729 13 101 1.6 6.4 0.00 0.15 0.15 83 1010.0
20260504201628 13 101 1.6 6.4 0.00 0.15 0.15 84 1010.0
20260504201529 13 97 1.6 4.8 0.00 0.15 0.15 84 1010.0
20260504201434 13 98 1.6 4.8 0.00 0.15 0.15 84 1010.0
20260504201427 13 99 1.6 4.8 0.00 0.15 0.15 84 1010.0
20260504201327 13 95 0.0 4.8 0.00 0.15 0.15 84 1010.1
20260504201227 13 105 0.0 4.8 0.00 0.15 0.15 85 1010.1
20260504201127 13 102 0.0 3.2 0.00 0.15 0.15 85 1010.1
20260504201027 13 105 0.0 3.2 0.00 0.15 0.15 85 1010.1
20260504200927 13 104 0.0 3.2 0.00 0.15 0.15 84 1010.1
20260504200824 13 104 0.0 3.2 0.00 0.15 0.15 84 1010.2
20260504200720 13 104 0.0 3.2 0.00 0.15 0.15 85 1010.2
20260504200620 13 104 0.0 3.2 0.00 0.15 0.15 85 1010.2
20260504200521 13 104 0.0 3.2 0.00 0.15 0.15 85 1010.2
20260504200420 13 104 1.6 3.2 0.00 0.15 0.15 85 1010.4
20260504200320 13 104 1.6 3.2 0.00 0.15 0.15 85 1010.4
20260504200220 13 104 1.6 3.2 0.00 0.15 0.15 85 1010.4
20260504200121 13 104 1.6 4.8 0.00 0.15 0.15 85 1010.4
20260504200021 13 104 1.6 4.8 0.00 0.15 0.15 84 1010.4
20260504195935 13 104 1.6 4.8 0.00 0.15 0.15 85 1010.4
20260504195921 13 103 1.6 4.8 0.00 0.15 0.15 85 1010.4
20260504195821 13 104 1.6 4.8 0.03 0.15 0.15 84 1010.4
20260504195718 13 104 1.6 4.8 0.03 0.15 0.15 85 1010.5
20260504195618 13 104 1.6 4.8 0.03 0.15 0.15 84 1010.5
20260504195514 13 103 1.6 6.4 0.03 0.15 0.15 83 1010.5
20260504195415 13 103 1.6 6.4 0.05 0.15 0.15 83 1010.4
20260504195315 13 103 1.6 6.4 0.05 0.15 0.15 83 1010.4
20260504195214 13 103 3.2 11.3 0.05 0.15 0.15 83 1010.4
20260504195157 13 107 3.2 12.9 0.05 0.15 0.15 83 1010.4
20260504195151 13 104 3.2 12.9 0.05 0.15 0.15 83 1010.2
20260504195147 13 107 3.2 12.9 0.05 0.15 0.15 83 1010.2
20260504194915 13 107 3.2 12.9 0.05 0.15 0.15 82 1010.4
20260504194815 13 108 3.2 12.9 0.08 0.15 0.15 82 1010.4
20260504194715 13 110 4.8 12.9 0.08 0.15 0.15 82 1010.2
20260504194615 13 111 4.8 12.9 0.10 0.15 0.15 82 1010.2
20260504194514 13 127 4.8 12.9 0.13 0.15 0.15 82 1010.1
20260504194414 13 128 4.8 12.9 0.13 0.15 0.15 82 1010.2
20260504194314 13 129 4.8 12.9 0.15 0.15 0.15 83 1010.2
20260504194214 13 140 4.8 12.9 0.15 0.15 0.15 82 1010.2
20260504194115 13 155 3.2 11.3 0.15 0.15 0.15 82 1010.2
20260504194015 13 123 3.2 11.3 0.15 0.15 0.15 83 1010.2
20260504193914 13 153 3.2 11.3 0.15 0.15 0.15 82 1010.2
20260504193815 13 150 3.2 11.3 0.15 0.15 0.15 83 1010.1
20260504193715 13 163 3.2 11.3 0.15 0.15 0.15 83 1010.1
20260504193611 13 173 3.2 11.3 0.15 0.15 0.15 83 1010.2
20260504193512 13 161 3.2 11.3 0.15 0.15 0.15 83 1010.1
20260504193434 13 163 1.6 11.3 0.15 0.15 0.15 83 1010.1
20260504193411 13 175 1.6 11.3 0.15 0.15 0.15 83 1010.1
20260504193311 13 148 1.6 6.4 0.15 0.15 0.15 83 1010.1
20260504193211 13 114 1.6 4.8 0.15 0.15 0.15 82 1010.1
20260504193111 13 96 1.6 4.8 0.15 0.15 0.15 82 1010.0
20260504193010 13 96 1.6 6.4 0.15 0.15 0.15 82 1010.0
20260504192910 13 95 1.6 6.4 0.15 0.15 0.15 82 1010.0
20260504192811 13 96 1.6 6.4 0.15 0.15 0.15 81 1010.0
20260504192711 13 101 1.6 6.4 0.15 0.15 0.15 81 1010.0
20260504192611 14 101 1.6 6.4 0.15 0.15 0.15 81 1010.0
20260504192511 14 98 1.6 6.4 0.15 0.15 0.15 81 1010.0
20260504192410 14 101 1.6 6.4 0.15 0.15 0.15 81 1010.0
20260504192310 14 101 1.6 6.4 0.15 0.15 0.15 81 1010.0
20260504192210 14 111 1.6 6.4 0.15 0.15 0.15 81 1010.0
20260504192110 14 111 1.6 6.4 0.15 0.15 0.15 82 1010.0
20260504192010 14 105 1.6 6.4 0.15 0.15 0.15 81 1010.0
20260504191932 14 94 1.6 6.4 0.15 0.15 0.15 81 1010.0
20260504191911 14 91 1.6 6.4 0.15 0.15 0.15 81 1010.0
20260504191811 14 91 3.2 9.7 0.15 0.15 0.15 81 1010.0
20260504191707 14 90 3.2 9.7 0.15 0.15 0.15 81 1010.0
20260504191606 14 90 3.2 11.3 0.15 0.15 0.15 81 1010.0
20260504191506 14 90 3.2 11.3 0.15 0.15 0.15 81 1010.1
20260504191431 14 84 3.2 11.3 0.15 0.15 0.15 81 1010.1
20260504191407 14 90 3.2 11.3 0.15 0.15 0.15 81 1010.1
20260504191306 14 85 3.2 11.3 0.15 0.15 0.15 80 1010.1
20260504191206 14 96 3.2 11.3 0.15 0.15 0.15 80 1010.1
20260504191106 14 92 4.8 11.3 0.15 0.15 0.15 80 1010.1
20260504191007 15 103 4.8 11.3 0.15 0.15 0.15 80 1010.2
20260504190930 15 61 3.2 11.3 0.15 0.15 0.15 80 1010.2
20260504190906 15 106 3.2 11.3 0.15 0.15 0.15 80 1010.2
20260504190806 15 88 3.2 11.3 0.15 0.15 0.15 80 1010.4
20260504190706 15 115 3.2 11.3 0.15 0.15 0.15 80 1010.4
20260504190652 15 82 3.2 6.4 0.15 0.15 0.15 78 1010.5
20260504190646 15 88 3.2 8.0 0.15 0.15 0.15 79 1010.5
20260504190640 15 79 3.2 8.0 0.15 0.15 0.15 79 1010.4
20260504190407 15 82 3.2 6.4 0.15 0.15 0.15 77 1010.5
20260504190307 15 81 3.2 6.4 0.15 0.15 0.15 77 1010.5
20260504190207 15 101 3.2 6.4 0.15 0.15 0.15 76 1010.4
20260504190107 15 91 3.2 6.4 0.15 0.15 0.15 76 1010.5
20260504190007 15 116 3.2 8.0 0.15 0.15 0.15 76 1010.5
20260504185931 15 96 3.2 8.0 0.15 0.15 0.13 76 1010.5
20260504185911 15 114 3.2 8.0 0.13 0.13 0.13 76 1010.5
20260504185802 16 103 3.2 8.0 0.13 0.13 0.13 76 1010.6
20260504185702 16 111 4.8 9.7 0.13 0.13 0.13 75 1010.7
20260504185602 16 127 4.8 14.5 0.13 0.13 0.13 75 1010.7
20260504185503 16 115 6.4 17.7 0.13 0.13 0.10 76 1010.7
20260504185430 16 105 6.4 17.7 0.10 0.10 0.10 76 1010.8
20260504185421 17 230 11.3 29.0 0.08 0.08 0.05 72 1010.7
20260504185416 16 115 6.4 17.7 0.10 0.10 0.10 76 1010.8
20260504185407 16 134 8.0 17.7 0.10 0.10 0.10 74 1010.8
20260504185403 16 183 9.7 20.9 0.10 0.10 0.10 72 1010.8
20260504185145 16 183 9.7 29.0 0.10 0.10 0.08 73 1010.8
20260504185141 17 202 9.7 29.0 0.08 0.08 0.08 72 1010.8
20260504184903 17 231 11.3 29.0 0.08 0.08 0.05 72 1010.7
20260504184800 17 228 11.3 29.0 0.05 0.05 0.05 70 1010.7
20260504184700 17 279 12.9 29.0 0.05 0.05 0.05 68 1010.7
20260504184600 17 232 12.9 29.0 0.05 0.05 0.03 68 1010.7
20260504184501 17 245 12.9 29.0 0.03 0.03 0.03 67 1010.6
20260504184430 17 259 12.9 29.0 0.03 0.03 0.00 67 1010.6
20260504184407 17 277 12.9 29.0 0.03 0.03 0.00 67 1010.6
20260504184301 17 232 12.9 29.0 0.00 0.00 0.00 65 1010.6
20260504184200 18 257 14.5 29.0 0.00 0.00 0.00 64 1010.6
20260504184100 18 273 14.5 27.4 0.00 0.00 0.00 62 1010.6
20260504184001 18 238 14.5 27.4 0.00 0.00 0.00 61 1010.5
20260504183930 18 240 14.5 27.4 0.00 0.00 0.00 61 1010.5
20260504183901 18 273 14.5 27.4 0.00 0.00 0.00 60 1010.5
20260504183801 18 225 14.5 27.4 0.00 0.00 0.00 58 1010.4
20260504183701 18 212 14.5 27.4 0.00 0.00 0.00 57 1010.4
20260504183654 18 219 14.5 32.2 0.00 0.00 0.00 54 1010.0
20260504183646 18 210 16.1 27.4 0.00 0.00 0.00 55 1010.1
20260504183642 18 212 16.1 32.2 0.00 0.00 0.00 54 1010.1
20260504183401 18 192 14.5 32.2 0.00 0.00 0.00 54 1010.0
20260504183301 18 209 14.5 32.2 0.00 0.00 0.00 55 1009.9
20260504183201 19 159 12.9 32.2 0.00 0.00 0.00 55 1009.9
20260504183152 19 215 9.7 32.2 0.00 0.00 0.00 54 1009.8
20260504183147 19 197 12.9 32.2 0.00 0.00 0.00 55 1009.9
20260504183143 19 211 11.3 32.2 0.00 0.00 0.00 54 1009.8
20260504182900 19 210 9.7 32.2 0.00 0.00 0.00 53 1009.8
20260504182800 20 236 8.0 32.2 0.00 0.00 0.00 53 1009.8
20260504182700 20 207 6.4 32.2 0.00 0.00 0.00 53 1009.8
20260504182600 20 231 6.4 32.2 0.00 0.00 0.00 52 1009.8
20260504182500 20 202 3.2 24.1 0.00 0.00 0.00 52 1009.7
20260504182429 20 201 3.2 12.9 0.00 0.00 0.00 52 1009.6
20260504182401 20 216 3.2 11.3 0.00 0.00 0.00 51 1009.6
20260504182301 20 207 3.2 9.7 0.00 0.00 0.00 50 1009.4
20260504182201 20 42 1.6 8.0 0.00 0.00 0.00 49 1009.3
20260504182101 20 41 3.2 8.0 0.00 0.00 0.00 49 1009.3
20260504182002 20 41 3.2 8.0 0.00 0.00 0.00 50 1009.2
20260504181900 20 41 3.2 8.0 0.00 0.00 0.00 49 1009.1
20260504181801 20 41 3.2 8.0 0.00 0.00 0.00 49 1009.1
20260504181702 20 41 3.2 8.0 0.00 0.00 0.00 49 1009.1
20260504181601 20 71 3.2 6.4 0.00 0.00 0.00 48 1009.1
20260504181501 20 71 3.2 6.4 0.00 0.00 0.00 48 1009.1
20260504181401 20 71 3.2 6.4 0.00 0.00 0.00 48 1009.1
20260504181301 20 26 3.2 6.4 0.00 0.00 0.00 48 1009.1
20260504181202 20 26 3.2 8.0 0.00 0.00 0.00 48 1009.1
20260504181101 20 24 3.2 11.3 0.00 0.00 0.00 48 1009.1
20260504181001 20 37 3.2 11.3 0.00 0.00 0.00 48 1009.1
20260504180922 20 37 4.8 11.3 0.00 0.00 0.00 47 1009.1
20260504180901 20 38 4.8 11.3 0.00 0.00 0.00 47 1009.1
20260504180801 20 38 4.8 11.3 0.00 0.00 0.00 48 1009.1
20260504180700 20 35 4.8 11.3 0.00 0.00 0.00 47 1009.1
20260504180600 20 19 4.8 11.3 0.00 0.00 0.00 47 1009.1
20260504180500 20 19 4.8 11.3 0.00 0.00 0.00 47 1009.1
20260504180401 20 22 4.8 11.3 0.00 0.00 0.00 47 1009.2
20260504180300 20 22 4.8 11.3 0.00 0.00 0.00 47 1009.1
20260504180200 20 31 4.8 11.3 0.00 0.00 0.00 47 1009.1
20260504180100 20 19 4.8 11.3 0.00 0.00 0.00 47 1009.1
20260504180001 20 13 4.8 11.3 0.00 0.00 0.00 46 1009.1
20260504175922 20 12 4.8 11.3 0.00 0.00 0.00 46 1009.1
20260504175900 20 19 4.8 11.3 0.00 0.00 0.00 46 1009.1
20260504175800 20 20 4.8 11.3 0.00 0.00 0.00 47 1009.1
20260504175700 20 40 3.2 11.3 0.00 0.00 0.00 47 1009.1
20260504175646 20 43 3.2 11.3 0.00 0.00 0.00 47 1009.1
20260504175636 20 20 3.2 11.3 0.00 0.00 0.00 46 1009.1
20260504175632 20 36 3.2 11.3 0.00 0.00 0.00 47 1009.1
20260504175401 20 5 3.2 11.3 0.00 0.00 0.00 47 1009.1
20260504175301 20 21 4.8 11.3 0.00 0.00 0.00 47 1009.1
20260504175201 21 335 4.8 11.3 0.00 0.00 0.00 47 1009.1
20260504175101 21 24 3.2 8.0 0.00 0.00 0.00 46 1009.1
20260504175002 21 36 3.2 8.0 0.00 0.00 0.00 46 1009.1
20260504174901 21 36 3.2 8.0 0.00 0.00 0.00 46 1009.1
20260504174801 21 36 4.8 8.0 0.00 0.00 0.00 46 1009.1
20260504174701 21 28 3.2 8.0 0.00 0.00 0.00 46 1009.0
20260504174600 21 30 3.2 8.0 0.00 0.00 0.00 47 1009.0
20260504174502 21 30 3.2 8.0 0.00 0.00 0.00 46 1009.0
20260504174401 21 16 3.2 8.0 0.00 0.00 0.00 46 1009.0
20260504174301 21 19 3.2 6.4 0.00 0.00 0.00 46 1009.0
20260504174201 21 36 3.2 6.4 0.00 0.00 0.00 46 1009.0
20260504174101 21 44 3.2 6.4 0.00 0.00 0.00 45 1009.0